Wetterdaten: Freitag, 08.01.2016
Datum Zeit Temp. Aussen Temp. o. S. +5cm Feuchte Auss BlattFeu 1 Luftdruck Regen Sonnenschein Regendauer Solar Windben Empfang
08.01.2016 00:00 5,3 C 5,6 C 3,9 C 84 % 0 lf 996,3 hPa 0,0 l/m 0 min 0 min 0 W/m 29,3 km/h (5 Bft) 89,36 %
08.01.2016 00:02 5,3 C 5,6 C 3,9 C 84 % 0 lf 996,4 hPa 0,0 l/m 0 min 0 min 0 W/m 29,3 km/h (5 Bft) 95,35 %
08.01.2016 00:04 5,3 C 5,6 C 3,9 C 84 % 0 lf 996,5 hPa 0,0 l/m 0 min 0 min 0 W/m 39,7 km/h (6 Bft) 97,92 %
08.01.2016 00:06 5,3 C 5,6 C 3,9 C 83 % 0 lf 996,5 hPa 0,0 l/m 0 min 0 min 0 W/m 35,6 km/h (5 Bft) 97,87 %
08.01.2016 00:08 5,3 C 5,6 C 3,9 C 83 % 0 lf 996,5 hPa 0,0 l/m 0 min 0 min 0 W/m 33,5 km/h (5 Bft) 97,83 %
08.01.2016 00:10 5,3 C 5,0 C 3,3 C 83 % 0 lf 996,6 hPa 0,0 l/m 0 min 0 min 0 W/m 29,3 km/h (5 Bft) 97,87 %
08.01.2016 00:12 5,3 C 5,0 C 3,3 C 83 % 0 lf 996,6 hPa 0,0 l/m 0 min 0 min 0 W/m 29,3 km/h (5 Bft) 97,87 %
08.01.2016 00:14 5,3 C 5,0 C 3,9 C 83 % 0 lf 996,6 hPa 0,0 l/m 0 min 0 min 0 W/m 31,4 km/h (5 Bft) 95,74 %
08.01.2016 00:16 5,3 C 5,0 C 3,9 C 83 % 0 lf 996,7 hPa 0,0 l/m 0 min 0 min 0 W/m 29,3 km/h (5 Bft) 91,49 %
08.01.2016 00:18 5,3 C 5,0 C 3,3 C 83 % 0 lf 996,7 hPa 0,0 l/m 0 min 0 min 0 W/m 29,3 km/h (5 Bft) 95,74 %
08.01.2016 00:20 5,3 C 5,0 C 3,9 C 83 % 0 lf 996,7 hPa 0,0 l/m 0 min 0 min 0 W/m 41,8 km/h (6 Bft) 93,48 %
08.01.2016 00:22 5,2 C 5,0 C 3,9 C 83 % 0 lf 996,8 hPa 0,0 l/m 0 min 0 min 0 W/m 39,7 km/h (6 Bft) 95,74 %
08.01.2016 00:24 5,2 C 5,6 C 3,9 C 83 % 0 lf 996,9 hPa 0,0 l/m 0 min 0 min 0 W/m 33,5 km/h (5 Bft) 93,62 %
08.01.2016 00:26 5,2 C 5,0 C 3,9 C 83 % 0 lf 997,1 hPa 0,0 l/m 0 min 0 min 0 W/m 25,1 km/h (4 Bft) 93,62 %
08.01.2016 00:28 5,2 C 5,0 C 3,3 C 83 % 0 lf 997,0 hPa 0,0 l/m 0 min 0 min 0 W/m 33,5 km/h (5 Bft) 91,49 %
08.01.2016 00:30 5,2 C 5,0 C 3,3 C 83 % 0 lf 997,1 hPa 0,0 l/m 0 min 0 min 0 W/m 33,5 km/h (5 Bft) 93,62 %
08.01.2016 00:32 5,2 C 5,0 C 3,3 C 83 % 0 lf 997,2 hPa 0,0 l/m 0 min 0 min 0 W/m 31,4 km/h (5 Bft) 95,56 %
08.01.2016 00:34 5,2 C 5,0 C 3,3 C 83 % 0 lf 997,3 hPa 0,0 l/m 0 min 0 min 0 W/m 31,4 km/h (5 Bft) 95,74 %
08.01.2016 00:36 5,2 C 5,0 C 3,3 C 83 % 0 lf 997,3 hPa 0,0 l/m 0 min 0 min 0 W/m 31,4 km/h (5 Bft) 95,74 %
08.01.2016 00:38 5,2 C 5,0 C 3,3 C 83 % 0 lf 997,3 hPa 0,0 l/m 0 min 0 min 0 W/m 25,1 km/h (4 Bft) 97,87 %
08.01.2016 00:40 5,2 C 5,0 C 3,3 C 83 % 0 lf 997,3 hPa 0,0 l/m 0 min 0 min 0 W/m 25,1 km/h (4 Bft) 97,87 %
08.01.2016 00:42 5,2 C 5,0 C 3,3 C 84 % 0 lf 997,3 hPa 0,0 l/m 0 min 0 min 0 W/m 29,3 km/h (5 Bft) 95,74 %
08.01.2016 00:44 5,2 C 5,0 C 3,3 C 84 % 0 lf 997,4 hPa 0,0 l/m 0 min 0 min 0 W/m 37,7 km/h (5 Bft) 95,65 %
08.01.2016 00:46 5,2 C 5,0 C 3,9 C 84 % 0 lf 997,4 hPa 0,0 l/m 0 min 0 min 0 W/m 41,8 km/h (6 Bft) 93,62 %
08.01.2016 00:48 5,2 C 5,0 C 3,9 C 84 % 0 lf 997,5 hPa 0,0 l/m 0 min 0 min 0 W/m 35,6 km/h (5 Bft) 95,74 %
08.01.2016 00:50 5,2 C 5,6 C 3,9 C 84 % 0 lf 997,5 hPa 0,0 l/m 0 min 0 min 0 W/m 37,7 km/h (5 Bft) 91,49 %
08.01.2016 00:52 5,2 C 5,6 C 3,9 C 84 % 0 lf 997,5 hPa 0,0 l/m 0 min 0 min 0 W/m 35,6 km/h (5 Bft) 93,62 %
08.01.2016 00:54 5,2 C 5,0 C 3,3 C 84 % 0 lf 997,4 hPa 0,0 l/m 0 min 0 min 0 W/m 33,5 km/h (5 Bft) 93,62 %
08.01.2016 00:56 5,2 C 5,0 C 3,3 C 84 % 0 lf 997,4 hPa 0,0 l/m 0 min 0 min 0 W/m 37,7 km/h (5 Bft) 95,65 %
08.01.2016 00:58 5,2 C 5,0 C 3,3 C 84 % 0 lf 997,5 hPa 0,0 l/m 0 min 0 min 0 W/m 27,2 km/h (4 Bft) 91,49 %
08.01.2016 01:00 5,2 C 5,0 C 3,3 C 84 % 0 lf 997,5 hPa 0,0 l/m 0 min 0 min 0 W/m 25,1 km/h (4 Bft) 95,74 %
08.01.2016 01:02 5,1 C 5,0 C 3,3 C 84 % 0 lf 997,5 hPa 0,0 l/m 0 min 0 min 0 W/m 39,7 km/h (6 Bft) 95,74 %
08.01.2016 01:04 5,1 C 5,0 C 3,9 C 84 % 0 lf 997,4 hPa 0,0 l/m 0 min 0 min 0 W/m 41,8 km/h (6 Bft) 95,74 %
08.01.2016 01:06 5,1 C 5,0 C 3,9 C 84 % 0 lf 997,5 hPa 0,0 l/m 0 min 0 min 0 W/m 33,5 km/h (5 Bft) 91,49 %
08.01.2016 01:08 5,1 C 5,0 C 3,9 C 84 % 0 lf 997,5 hPa 0,0 l/m 0 min 0 min 0 W/m 41,8 km/h (6 Bft) 95,65 %
08.01.2016 01:10 5,1 C 5,0 C 3,9 C 84 % 0 lf 997,5 hPa 0,0 l/m 0 min 0 min 0 W/m 35,6 km/h (5 Bft) 91,49 %
08.01.2016 01:12 5,1 C 5,0 C 3,3 C 84 % 0 lf 997,5 hPa 0,0 l/m 0 min 0 min 0 W/m 35,6 km/h (5 Bft) 97,87 %
08.01.2016 01:14 5,1 C 5,0 C 3,3 C 84 % 0 lf 997,6 hPa 0,0 l/m 0 min 0 min 0 W/m 39,7 km/h (6 Bft) 95,74 %
08.01.2016 01:16 5,1 C 5,0 C 3,3 C 84 % 0 lf 997,6 hPa 0,0 l/m 0 min 0 min 0 W/m 41,8 km/h (6 Bft) 93,62 %
08.01.2016 01:18 5,1 C 5,0 C 3,3 C 84 % 0 lf 997,7 hPa 0,0 l/m 0 min 0 min 0 W/m 35,6 km/h (5 Bft) 97,83 %
08.01.2016 01:20 5,1 C 5,0 C 3,3 C 84 % 0 lf 997,7 hPa 0,0 l/m 0 min 0 min 0 W/m 41,8 km/h (6 Bft) 95,74 %
08.01.2016 01:22 5,1 C 5,0 C 3,3 C 84 % 0 lf 997,8 hPa 0,0 l/m 0 min 0 min 0 W/m 39,7 km/h (6 Bft) 95,74 %
08.01.2016 01:24 5,1 C 5,0 C 3,3 C 84 % 0 lf 997,7 hPa 0,0 l/m 0 min 0 min 0 W/m 29,3 km/h (5 Bft) 97,87 %
08.01.2016 01:26 5,1 C 5,0 C 3,3 C 84 % 0 lf 997,8 hPa 0,0 l/m 0 min 0 min 0 W/m 37,7 km/h (5 Bft) 93,62 %
08.01.2016 01:28 5,1 C 5,0 C 3,3 C 84 % 0 lf 997,8 hPa 0,0 l/m 0 min 0 min 0 W/m 25,1 km/h (4 Bft) 97,87 %
08.01.2016 01:30 5,1 C 5,0 C 3,3 C 84 % 0 lf 997,9 hPa 0,0 l/m 0 min 0 min 0 W/m 25,1 km/h (4 Bft) 97,83 %
08.01.2016 01:32 5,1 C 5,0 C 3,3 C 84 % 0 lf 997,9 hPa 0,0 l/m 0 min 0 min 0 W/m 39,7 km/h (6 Bft) 95,74 %
08.01.2016 01:34 5,1 C 5,0 C 3,3 C 84 % 0 lf 998,0 hPa 0,0 l/m 0 min 0 min 0 W/m 33,5 km/h (5 Bft) 97,87 %
08.01.2016 01:36 5,1 C 5,0 C 3,3 C 84 % 0 lf 997,9 hPa 0,0 l/m 0 min 0 min 0 W/m 39,7 km/h (6 Bft) 100,00 %
08.01.2016 01:38 5,1 C 5,0 C 3,3 C 84 % 0 lf 998,0 hPa 0,0 l/m 0 min 0 min 0 W/m 31,4 km/h (5 Bft) 95,74 %
08.01.2016 01:40 5,1 C 5,0 C 3,3 C 84 % 0 lf 998,1 hPa 0,0 l/m 0 min 0 min 0 W/m 41,8 km/h (6 Bft) 100,00 %
08.01.2016 01:42 5,1 C 5,0 C 3,3 C 84 % 0 lf 998,0 hPa 0,0 l/m 0 min 0 min 0 W/m 39,7 km/h (6 Bft) 97,83 %
08.01.2016 01:44 5,1 C 5,0 C 3,3 C 84 % 0 lf 998,1 hPa 0,0 l/m 0 min 0 min 0 W/m 39,7 km/h (6 Bft) 100,00 %
08.01.2016 01:46 5,1 C 5,0 C 3,3 C 84 % 0 lf 998,2 hPa 0,0 l/m 0 min 0 min 0 W/m 31,4 km/h (5 Bft) 95,74 %
08.01.2016 01:48 5,1 C 5,0 C 3,3 C 84 % 0 lf 998,3 hPa 0,0 l/m 0 min 0 min 0 W/m 33,5 km/h (5 Bft) 97,87 %
08.01.2016 01:50 5,1 C 5,0 C 3,3 C 84 % 0 lf 998,3 hPa 0,0 l/m 0 min 0 min 0 W/m 39,7 km/h (6 Bft) 100,00 %
08.01.2016 01:52 5,1 C 5,0 C 3,3 C 84 % 0 lf 998,3 hPa 0,0 l/m 0 min 0 min 0 W/m 37,7 km/h (5 Bft) 100,00 %
08.01.2016 01:54 5,0 C 5,0 C 3,3 C 84 % 0 lf 998,2 hPa 0,0 l/m 0 min 0 min 0 W/m 37,7 km/h (5 Bft) 100,00 %
08.01.2016 01:56 5,1 C 5,0 C 3,3 C 84 % 0 lf 998,3 hPa 0,0 l/m 0 min 0 min 0 W/m 31,4 km/h (5 Bft) 95,74 %
08.01.2016 01:58 5,0 C 5,0 C 3,3 C 84 % 0 lf 998,3 hPa 0,0 l/m 0 min 0 min 0 W/m 35,6 km/h (5 Bft) 97,87 %
08.01.2016 02:00 5,0 C 5,0 C 3,3 C 84 % 0 lf 998,3 hPa 0,0 l/m 0 min 0 min 0 W/m 33,5 km/h (5 Bft) 95,74 %
08.01.2016 02:02 5,0 C 5,0 C 3,3 C 84 % 0 lf 998,3 hPa 0,0 l/m 0 min 0 min 0 W/m 35,6 km/h (5 Bft) 91,49 %
08.01.2016 02:04 5,0 C 5,0 C 3,3 C 84 % 0 lf 998,3 hPa 0,0 l/m 0 min 0 min 0 W/m 35,6 km/h (5 Bft) 97,87 %
08.01.2016 02:06 5,0 C 5,0 C 3,3 C 84 % 0 lf 998,3 hPa 0,0 l/m 0 min 0 min 0 W/m 41,8 km/h (6 Bft) 95,65 %
08.01.2016 02:08 5,0 C 5,0 C 3,3 C 84 % 0 lf 998,5 hPa 0,0 l/m 0 min 0 min 0 W/m 48,1 km/h (6 Bft) 97,87 %
08.01.2016 02:10 5,0 C 5,0 C 3,3 C 84 % 0 lf 998,5 hPa 0,0 l/m 0 min 0 min 0 W/m 37,7 km/h (5 Bft) 95,74 %
08.01.2016 02:12 5,0 C 5,0 C 3,3 C 84 % 0 lf 998,5 hPa 0,0 l/m 0 min 0 min 0 W/m 35,6 km/h (5 Bft) 93,62 %
08.01.2016 02:14 5,0 C 5,0 C 3,3 C 84 % 0 lf 998,5 hPa 0,0 l/m 0 min 0 min 0 W/m 35,6 km/h (5 Bft) 95,74 %
08.01.2016 02:16 5,0 C 5,0 C 3,3 C 84 % 0 lf 998,5 hPa 0,0 l/m 0 min 0 min 0 W/m 29,3 km/h (5 Bft) 95,74 %
08.01.2016 02:18 5,0 C 5,0 C 3,3 C 84 % 0 lf 998,6 hPa 0,0 l/m 0 min 0 min 0 W/m 37,7 km/h (5 Bft) 95,65 %
08.01.2016 02:20 5,0 C 5,0 C 3,3 C 84 % 0 lf 998,6 hPa 0,0 l/m 0 min 0 min 0 W/m 35,6 km/h (5 Bft) 93,62 %
08.01.2016 02:22 5,0 C 5,0 C 3,3 C 84 % 0 lf 998,7 hPa 0,0 l/m 0 min 0 min 0 W/m 29,3 km/h (5 Bft) 93,62 %
08.01.2016 02:24 5,0 C 5,0 C 3,3 C 84 % 0 lf 998,8 hPa 0,0 l/m 0 min 0 min 0 W/m 41,8 km/h (6 Bft) 95,74 %
08.01.2016 02:26 5,0 C 5,0 C 3,3 C 84 % 0 lf 998,8 hPa 0,0 l/m 0 min 0 min 0 W/m 39,7 km/h (6 Bft) 95,74 %
08.01.2016 02:28 5,0 C 5,0 C 3,3 C 84 % 0 lf 998,8 hPa 0,0 l/m 0 min 0 min 0 W/m 39,7 km/h (6 Bft) 91,30 %
08.01.2016 02:30 5,0 C 5,0 C 3,3 C 84 % 0 lf 998,9 hPa 0,0 l/m 0 min 0 min 0 W/m 29,3 km/h (5 Bft) 93,62 %
08.01.2016 02:32 5,0 C 5,0 C 3,3 C 84 % 0 lf 998,8 hPa 0,0 l/m 0 min 0 min 0 W/m 39,7 km/h (6 Bft) 95,74 %
08.01.2016 02:34 5,0 C 5,0 C 3,3 C 84 % 0 lf 998,9 hPa 0,0 l/m 0 min 0 min 0 W/m 31,4 km/h (5 Bft) 91,49 %
08.01.2016 02:36 5,0 C 5,0 C 3,3 C 84 % 0 lf 999,0 hPa 0,0 l/m 0 min 0 min 0 W/m 43,9 km/h (6 Bft) 93,62 %
08.01.2016 02:38 5,0 C 5,0 C 3,3 C 84 % 0 lf 998,9 hPa 0,0 l/m 0 min 0 min 0 W/m 33,5 km/h (5 Bft) 87,23 %
08.01.2016 02:40 5,0 C 5,0 C 3,3 C 84 % 0 lf 999,0 hPa 0,0 l/m 0 min 0 min 0 W/m 31,4 km/h (5 Bft) 93,48 %
08.01.2016 02:42 4,9 C 5,0 C 3,3 C 84 % 0 lf 999,0 hPa 0,0 l/m 0 min 0 min 0 W/m 31,4 km/h (5 Bft) 91,49 %
08.01.2016 02:44 4,9 C 5,0 C 3,3 C 84 % 0 lf 999,1 hPa 0,0 l/m 0 min 0 min 0 W/m 37,7 km/h (5 Bft) 93,62 %
08.01.2016 02:46 4,9 C 5,0 C 3,3 C 84 % 0 lf 999,1 hPa 0,0 l/m 0 min 0 min 0 W/m 37,7 km/h (5 Bft) 93,62 %
08.01.2016 02:48 4,9 C 5,0 C 3,3 C 84 % 0 lf 999,2 hPa 0,0 l/m 0 min 0 min 0 W/m 29,3 km/h (5 Bft) 89,36 %
08.01.2016 02:50 4,9 C 5,0 C 3,3 C 84 % 0 lf 999,2 hPa 0,0 l/m 0 min 0 min 0 W/m 37,7 km/h (5 Bft) 89,36 %
08.01.2016 02:52 4,9 C 5,0 C 3,3 C 84 % 0 lf 999,3 hPa 0,0 l/m 0 min 0 min 0 W/m 27,2 km/h (4 Bft) 91,30 %
08.01.2016 02:54 4,9 C 5,0 C 3,3 C 84 % 0 lf 999,4 hPa 0,0 l/m 0 min 0 min 0 W/m 35,6 km/h (5 Bft) 93,62 %
08.01.2016 02:56 4,8 C 5,0 C 3,3 C 84 % 0 lf 999,5 hPa 0,0 l/m 0 min 0 min 0 W/m 35,6 km/h (5 Bft) 93,62 %
08.01.2016 02:58 4,8 C 5,0 C 3,3 C 84 % 0 lf 999,4 hPa 0,0 l/m 0 min 0 min 0 W/m 31,4 km/h (5 Bft) 95,74 %
08.01.2016 03:00 4,8 C 5,0 C 3,3 C 84 % 0 lf 999,5 hPa 0,0 l/m 0 min 0 min 0 W/m 43,9 km/h (6 Bft) 91,49 %
08.01.2016 03:02 4,8 C 5,0 C 3,3 C 84 % 0 lf 999,4 hPa 0,0 l/m 0 min 0 min 0 W/m 43,9 km/h (6 Bft) 93,62 %
08.01.2016 03:04 4,8 C 5,0 C 3,3 C 84 % 0 lf 999,5 hPa 0,0 l/m 0 min 0 min 0 W/m 33,5 km/h (5 Bft) 95,65 %
08.01.2016 03:06 4,9 C 5,0 C 3,3 C 84 % 0 lf 999,5 hPa 0,0 l/m 0 min 0 min 0 W/m 39,7 km/h (6 Bft) 93,62 %
08.01.2016 03:08 4,9 C 5,0 C 3,3 C 84 % 0 lf 999,6 hPa 0,0 l/m 0 min 0 min 0 W/m 31,4 km/h (5 Bft) 95,74 %
08.01.2016 03:10 4,9 C 5,0 C 3,3 C 84 % 0 lf 999,5 hPa 0,0 l/m 0 min 0 min 0 W/m 43,9 km/h (6 Bft) 93,62 %
08.01.2016 03:12 4,9 C 5,0 C 3,3 C 84 % 0 lf 999,7 hPa 0,0 l/m 0 min 0 min 0 W/m 35,6 km/h (5 Bft) 97,87 %
08.01.2016 03:14 4,9 C 5,0 C 3,3 C 84 % 0 lf 999,6 hPa 0,0 l/m 0 min 0 min 0 W/m 37,7 km/h (5 Bft) 97,87 %
08.01.2016 03:16 4,9 C 5,0 C 3,3 C 84 % 0 lf 999,7 hPa 0,0 l/m 0 min 0 min 0 W/m 33,5 km/h (5 Bft) 100,00 %
08.01.2016 03:18 4,9 C 5,0 C 3,3 C 84 % 0 lf 999,7 hPa 0,0 l/m 0 min 0 min 0 W/m 41,8 km/h (6 Bft) 100,00 %
08.01.2016 03:20 4,9 C 5,0 C 3,3 C 84 % 0 lf 999,7 hPa 0,0 l/m 0 min 0 min 0 W/m 31,4 km/h (5 Bft) 97,87 %
08.01.2016 03:22 4,9 C 5,0 C 3,3 C 84 % 0 lf 999,7 hPa 0,0 l/m 0 min 0 min 0 W/m 33,5 km/h (5 Bft) 97,87 %
08.01.2016 03:24 4,9 C 5,0 C 3,3 C 84 % 0 lf 999,8 hPa 0,0 l/m 0 min 0 min 0 W/m 43,9 km/h (6 Bft) 97,87 %
08.01.2016 03:26 4,9 C 5,0 C 3,3 C 84 % 0 lf 999,8 hPa 0,0 l/m 0 min 0 min 0 W/m 33,5 km/h (5 Bft) 97,83 %
08.01.2016 03:28 4,9 C 5,0 C 3,3 C 84 % 0 lf 999,9 hPa 0,0 l/m 0 min 0 min 0 W/m 29,3 km/h (5 Bft) 100,00 %
08.01.2016 03:30 4,9 C 5,0 C 3,3 C 84 % 0 lf 999,9 hPa 0,0 l/m 0 min 0 min 0 W/m 29,3 km/h (5 Bft) 100,00 %
08.01.2016 03:32 4,9 C 5,0 C 3,3 C 84 % 0 lf 999,9 hPa 0,0 l/m 0 min 0 min 0 W/m 37,7 km/h (5 Bft) 100,00 %
08.01.2016 03:34 4,8 C 5,0 C 3,3 C 84 % 0 lf 999,9 hPa 0,0 l/m 0 min 0 min 0 W/m 35,6 km/h (5 Bft) 97,87 %
08.01.2016 03:36 4,8 C 4,4 C 3,3 C 84 % 0 lf 999,8 hPa 0,0 l/m 0 min 0 min 0 W/m 31,4 km/h (5 Bft) 100,00 %
08.01.2016 03:38 4,8 C 4,4 C 3,3 C 84 % 0 lf 999,9 hPa 0,0 l/m 0 min 0 min 0 W/m 35,6 km/h (5 Bft) 97,87 %
08.01.2016 03:40 4,8 C 4,4 C 3,3 C 84 % 0 lf 1000,0 hPa 0,0 l/m 0 min 0 min 0 W/m 33,5 km/h (5 Bft) 97,83 %
08.01.2016 03:42 4,8 C 4,4 C 3,3 C 84 % 0 lf 1000,0 hPa 0,0 l/m 0 min 0 min 0 W/m 33,5 km/h (5 Bft) 100,00 %
08.01.2016 03:44 4,7 C 4,4 C 3,3 C 84 % 0 lf 999,9 hPa 0,0 l/m 0 min 0 min 0 W/m 31,4 km/h (5 Bft) 100,00 %
08.01.2016 03:46 4,7 C 4,4 C 3,3 C 84 % 0 lf 1000,0 hPa 0,0 l/m 0 min 0 min 0 W/m 43,9 km/h (6 Bft) 95,74 %
08.01.2016 03:48 4,7 C 4,4 C 2,8 C 85 % 0 lf 1000,0 hPa 0,0 l/m 0 min 0 min 0 W/m 29,3 km/h (5 Bft) 100,00 %
08.01.2016 03:50 4,7 C 4,4 C 3,3 C 85 % 0 lf 1000,0 hPa 0,0 l/m 0 min 0 min 0 W/m 31,4 km/h (5 Bft) 100,00 %
08.01.2016 03:52 4,6 C 4,4 C 3,3 C 85 % 0 lf 1000,0 hPa 0,0 l/m 0 min 0 min 0 W/m 35,6 km/h (5 Bft) 100,00 %
08.01.2016 03:54 4,6 C 4,4 C 3,3 C 85 % 0 lf 1000,1 hPa 0,0 l/m 0 min 0 min 0 W/m 31,4 km/h (5 Bft) 97,87 %
08.01.2016 03:56 4,6 C 4,4 C 2,8 C 85 % 0 lf 1000,1 hPa 0,0 l/m 0 min 0 min 0 W/m 33,5 km/h (5 Bft) 100,00 %
08.01.2016 03:58 4,6 C 4,4 C 2,8 C 85 % 0 lf 1000,2 hPa 0,0 l/m 0 min 0 min 0 W/m 25,1 km/h (4 Bft) 93,62 %
08.01.2016 04:00 4,6 C 4,4 C 2,8 C 85 % 0 lf 1000,2 hPa 0,0 l/m 0 min 0 min 0 W/m 25,1 km/h (4 Bft) 97,87 %
08.01.2016 04:02 4,5 C 4,4 C 2,8 C 85 % 0 lf 1000,3 hPa 0,0 l/m 0 min 0 min 0 W/m 27,2 km/h (4 Bft) 100,00 %
08.01.2016 04:04 4,5 C 4,4 C 2,8 C 85 % 0 lf 1000,4 hPa 0,0 l/m 0 min 0 min 0 W/m 25,1 km/h (4 Bft) 100,00 %
08.01.2016 04:06 4,4 C 4,4 C 2,8 C 85 % 0 lf 1000,4 hPa 0,0 l/m 0 min 0 min 0 W/m 35,6 km/h (5 Bft) 100,00 %
08.01.2016 04:08 4,4 C 4,4 C 2,8 C 85 % 0 lf 1000,3 hPa 0,0 l/m 0 min 0 min 0 W/m 25,1 km/h (4 Bft) 100,00 %
08.01.2016 04:10 4,4 C 4,4 C 2,8 C 85 % 0 lf 1000,3 hPa 0,0 l/m 0 min 0 min 0 W/m 37,7 km/h (5 Bft) 97,87 %
08.01.2016 04:12 4,4 C 4,4 C 2,8 C 85 % 0 lf 1000,4 hPa 0,0 l/m 0 min 0 min 0 W/m 31,4 km/h (5 Bft) 97,87 %
08.01.2016 04:14 4,4 C 4,4 C 2,8 C 85 % 0 lf 1000,4 hPa 0,0 l/m 0 min 0 min 0 W/m 18,8 km/h (3 Bft) 100,00 %
08.01.2016 04:16 4,4 C 4,4 C 2,8 C 85 % 0 lf 1000,4 hPa 0,0 l/m 0 min 0 min 0 W/m 20,9 km/h (4 Bft) 93,62 %
08.01.2016 04:18 4,3 C 4,4 C 2,8 C 85 % 0 lf 1000,4 hPa 0,0 l/m 0 min 0 min 0 W/m 29,3 km/h (5 Bft) 100,00 %
08.01.2016 04:20 4,3 C 3,9 C 2,8 C 85 % 0 lf 1000,5 hPa 0,0 l/m 0 min 0 min 0 W/m 27,2 km/h (4 Bft) 100,00 %
08.01.2016 04:22 4,3 C 3,9 C 2,8 C 85 % 0 lf 1000,5 hPa 0,0 l/m 0 min 0 min 0 W/m 27,2 km/h (4 Bft) 97,87 %
08.01.2016 04:24 4,3 C 4,4 C 2,8 C 86 % 0 lf 1000,5 hPa 0,0 l/m 0 min 0 min 0 W/m 31,4 km/h (5 Bft) 100,00 %
08.01.2016 04:26 4,2 C 3,9 C 2,8 C 86 % 0 lf 1000,6 hPa 0,0 l/m 0 min 0 min 0 W/m 20,9 km/h (4 Bft) 97,83 %
08.01.2016 04:28 4,2 C 3,9 C 2,8 C 86 % 0 lf 1000,6 hPa 0,0 l/m 0 min 0 min 0 W/m 23,0 km/h (4 Bft) 97,87 %
08.01.2016 04:30 4,2 C 3,9 C 2,8 C 86 % 0 lf 1000,7 hPa 0,0 l/m 0 min 0 min 0 W/m 25,1 km/h (4 Bft) 95,74 %
08.01.2016 04:32 4,2 C 3,9 C 2,8 C 86 % 0 lf 1000,6 hPa 0,0 l/m 0 min 0 min 0 W/m 29,3 km/h (5 Bft) 97,87 %
08.01.2016 04:34 4,2 C 3,9 C 2,8 C 86 % 0 lf 1000,7 hPa 0,0 l/m 0 min 0 min 0 W/m 33,5 km/h (5 Bft) 97,87 %
08.01.2016 04:36 4,2 C 3,9 C 2,8 C 86 % 0 lf 1000,7 hPa 0,0 l/m 0 min 0 min 0 W/m 25,1 km/h (4 Bft) 93,62 %
08.01.2016 04:38 4,2 C 3,9 C 2,8 C 86 % 0 lf 1000,7 hPa 0,0 l/m 0 min 0 min 0 W/m 25,1 km/h (4 Bft) 93,48 %
08.01.2016 04:40 4,1 C 3,9 C 2,8 C 86 % 0 lf 1000,7 hPa 0,0 l/m 0 min 0 min 0 W/m 27,2 km/h (4 Bft) 95,74 %
08.01.2016 04:42 4,1 C 3,9 C 2,8 C 86 % 0 lf 1000,7 hPa 0,0 l/m 0 min 0 min 0 W/m 31,4 km/h (5 Bft) 95,74 %
08.01.2016 04:44 4,1 C 3,9 C 2,8 C 86 % 0 lf 1000,7 hPa 0,0 l/m 0 min 0 min 0 W/m 33,5 km/h (5 Bft) 95,74 %
08.01.2016 04:46 4,1 C 3,9 C 2,8 C 86 % 0 lf 1000,7 hPa 0,0 l/m 0 min 0 min 0 W/m 27,2 km/h (4 Bft) 91,49 %
08.01.2016 04:48 4,1 C 3,9 C 2,8 C 86 % 0 lf 1000,7 hPa 0,0 l/m 0 min 0 min 0 W/m 27,2 km/h (4 Bft) 86,96 %
08.01.2016 04:50 4,1 C 3,9 C 2,8 C 86 % 0 lf 1000,8 hPa 0,0 l/m 0 min 0 min 0 W/m 27,2 km/h (4 Bft) 93,62 %
08.01.2016 04:52 4,1 C 3,9 C 2,8 C 86 % 0 lf 1000,7 hPa 0,0 l/m 0 min 0 min 0 W/m 23,0 km/h (4 Bft) 93,62 %
08.01.2016 04:54 4,1 C 3,9 C 2,8 C 86 % 0 lf 1000,9 hPa 0,0 l/m 0 min 0 min 0 W/m 27,2 km/h (4 Bft) 95,74 %
08.01.2016 04:56 4,1 C 3,9 C 2,8 C 86 % 0 lf 1000,9 hPa 0,0 l/m 0 min 0 min 0 W/m 23,0 km/h (4 Bft) 95,74 %
08.01.2016 04:58 4,1 C 3,9 C 2,8 C 86 % 0 lf 1000,8 hPa 0,0 l/m 0 min 0 min 0 W/m 33,5 km/h (5 Bft) 93,62 %
08.01.2016 05:00 4,1 C 3,9 C 2,8 C 86 % 0 lf 1000,9 hPa 0,0 l/m 0 min 0 min 0 W/m 27,2 km/h (4 Bft) 93,48 %
08.01.2016 05:02 4,1 C 3,9 C 2,8 C 86 % 0 lf 1000,9 hPa 0,0 l/m 0 min 0 min 0 W/m 25,1 km/h (4 Bft) 95,74 %
08.01.2016 05:04 4,0 C 3,9 C 2,8 C 86 % 0 lf 1000,9 hPa 0,0 l/m 0 min 0 min 0 W/m 23,0 km/h (4 Bft) 91,49 %
08.01.2016 05:06 4,0 C 3,9 C 2,2 C 86 % 0 lf 1000,9 hPa 0,0 l/m 0 min 0 min 0 W/m 18,8 km/h (3 Bft) 93,62 %
08.01.2016 05:08 4,0 C 3,9 C 2,2 C 86 % 0 lf 1000,9 hPa 0,0 l/m 0 min 0 min 0 W/m 23,0 km/h (4 Bft) 95,74 %
08.01.2016 05:10 4,0 C 3,9 C 2,2 C 86 % 0 lf 1000,9 hPa 0,0 l/m 0 min 0 min 0 W/m 25,1 km/h (4 Bft) 93,62 %
08.01.2016 05:12 3,9 C 3,9 C 2,2 C 86 % 0 lf 1000,9 hPa 0,0 l/m 0 min 0 min 0 W/m 25,1 km/h (4 Bft) 91,30 %
08.01.2016 05:14 3,9 C 3,9 C 2,8 C 86 % 0 lf 1000,9 hPa 0,0 l/m 0 min 0 min 0 W/m 25,1 km/h (4 Bft) 89,36 %
08.01.2016 05:16 3,9 C 3,9 C 2,2 C 86 % 0 lf 1000,8 hPa 0,0 l/m 0 min 0 min 0 W/m 27,2 km/h (4 Bft) 91,49 %
08.01.2016 05:18 3,9 C 3,9 C 2,2 C 86 % 0 lf 1000,9 hPa 0,0 l/m 0 min 0 min 0 W/m 37,7 km/h (5 Bft) 93,62 %
08.01.2016 05:20 3,9 C 3,9 C 2,8 C 86 % 0 lf 1000,9 hPa 0,0 l/m 0 min 0 min 0 W/m 35,6 km/h (5 Bft) 93,62 %
08.01.2016 05:22 3,9 C 3,9 C 2,8 C 86 % 0 lf 1000,9 hPa 0,0 l/m 0 min 0 min 0 W/m 29,3 km/h (5 Bft) 93,62 %
08.01.2016 05:24 3,9 C 3,9 C 2,8 C 86 % 0 lf 1000,9 hPa 0,0 l/m 0 min 0 min 0 W/m 27,2 km/h (4 Bft) 91,30 %
08.01.2016 05:26 3,9 C 3,9 C 2,2 C 86 % 0 lf 1000,9 hPa 0,0 l/m 0 min 0 min 0 W/m 33,5 km/h (5 Bft) 93,62 %
08.01.2016 05:28 3,9 C 3,9 C 2,2 C 86 % 0 lf 1001,0 hPa 0,0 l/m 0 min 0 min 0 W/m 18,8 km/h (3 Bft) 89,36 %
08.01.2016 05:30 3,9 C 3,9 C 2,2 C 85 % 0 lf 1000,9 hPa 0,0 l/m 0 min 0 min 0 W/m 25,1 km/h (4 Bft) 89,36 %
08.01.2016 05:32 3,8 C 3,9 C 2,2 C 85 % 0 lf 1000,9 hPa 0,0 l/m 0 min 0 min 0 W/m 27,2 km/h (4 Bft) 93,62 %
08.01.2016 05:34 3,8 C 3,9 C 2,2 C 85 % 0 lf 1000,9 hPa 0,0 l/m 0 min 0 min 0 W/m 25,1 km/h (4 Bft) 91,49 %
08.01.2016 05:36 3,8 C 3,9 C 2,2 C 85 % 0 lf 1000,9 hPa 0,0 l/m 0 min 0 min 0 W/m 31,4 km/h (5 Bft) 91,30 %
08.01.2016 05:38 3,8 C 3,9 C 2,2 C 85 % 0 lf 1000,9 hPa 0,0 l/m 0 min 0 min 0 W/m 27,2 km/h (4 Bft) 87,23 %
08.01.2016 05:40 3,8 C 3,9 C 2,2 C 85 % 0 lf 1000,9 hPa 0,0 l/m 0 min 0 min 0 W/m 31,4 km/h (5 Bft) 93,62 %
08.01.2016 05:42 3,8 C 3,9 C 2,2 C 85 % 0 lf 1000,9 hPa 0,0 l/m 0 min 0 min 0 W/m 29,3 km/h (5 Bft) 93,62 %
08.01.2016 05:44 3,8 C 3,9 C 2,2 C 85 % 0 lf 1001,0 hPa 0,0 l/m 0 min 0 min 0 W/m 37,7 km/h (5 Bft) 93,62 %
08.01.2016 05:46 3,8 C 3,9 C 2,8 C 85 % 0 lf 1001,0 hPa 0,0 l/m 0 min 0 min 0 W/m 35,6 km/h (5 Bft) 89,36 %
08.01.2016 05:48 3,8 C 3,9 C 2,8 C 85 % 0 lf 1001,0 hPa 0,0 l/m 0 min 0 min 0 W/m 31,4 km/h (5 Bft) 95,65 %
08.01.2016 05:50 3,8 C 3,9 C 2,2 C 85 % 0 lf 1001,0 hPa 0,0 l/m 0 min 0 min 0 W/m 33,5 km/h (5 Bft) 93,62 %
08.01.2016 05:52 3,8 C 3,9 C 2,8 C 85 % 0 lf 1001,0 hPa 0,0 l/m 0 min 0 min 0 W/m 33,5 km/h (5 Bft) 97,87 %
08.01.2016 05:54 3,8 C 3,9 C 2,8 C 85 % 0 lf 1001,1 hPa 0,0 l/m 0 min 0 min 0 W/m 29,3 km/h (5 Bft) 93,62 %
08.01.2016 05:56 3,9 C 3,9 C 2,2 C 85 % 0 lf 1001,1 hPa 0,0 l/m 0 min 0 min 0 W/m 33,5 km/h (5 Bft) 97,87 %
08.01.2016 05:58 3,9 C 3,9 C 2,2 C 85 % 0 lf 1001,1 hPa 0,0 l/m 0 min 0 min 0 W/m 25,1 km/h (4 Bft) 91,49 %
08.01.2016 06:00 3,9 C 3,9 C 2,2 C 85 % 0 lf 1001,1 hPa 0,0 l/m 0 min 0 min 0 W/m 35,6 km/h (5 Bft) 91,30 %
08.01.2016 06:02 3,9 C 3,9 C 2,8 C 84 % 0 lf 1001,1 hPa 0,0 l/m 0 min 0 min 0 W/m 29,3 km/h (5 Bft) 93,62 %
08.01.2016 06:04 3,9 C 3,9 C 2,2 C 84 % 0 lf 1001,2 hPa 0,0 l/m 0 min 0 min 0 W/m 18,8 km/h (3 Bft) 100,00 %
08.01.2016 06:06 3,9 C 3,9 C 2,2 C 84 % 0 lf 1001,2 hPa 0,0 l/m 0 min 0 min 0 W/m 27,2 km/h (4 Bft) 97,87 %
08.01.2016 06:08 3,9 C 3,9 C 2,2 C 84 % 0 lf 1001,2 hPa 0,0 l/m 0 min 0 min 0 W/m 35,6 km/h (5 Bft) 97,87 %
08.01.2016 06:10 3,9 C 3,9 C 2,2 C 84 % 0 lf 1001,2 hPa 0,0 l/m 0 min 0 min 0 W/m 23,0 km/h (4 Bft) 93,62 %
08.01.2016 06:12 3,9 C 3,9 C 2,8 C 84 % 0 lf 1001,2 hPa 0,0 l/m 0 min 0 min 0 W/m 31,4 km/h (5 Bft) 93,62 %
08.01.2016 06:14 3,9 C 3,9 C 2,2 C 84 % 0 lf 1001,2 hPa 0,0 l/m 0 min 0 min 0 W/m 25,1 km/h (4 Bft) 97,83 %
08.01.2016 06:16 3,9 C 3,9 C 2,2 C 84 % 0 lf 1001,2 hPa 0,0 l/m 0 min 0 min 0 W/m 25,1 km/h (4 Bft) 97,87 %
08.01.2016 06:18 3,9 C 3,9 C 2,2 C 84 % 0 lf 1001,3 hPa 0,0 l/m 0 min 0 min 0 W/m 25,1 km/h (4 Bft) 95,74 %
08.01.2016 06:20 3,8 C 3,9 C 2,2 C 84 % 0 lf 1001,2 hPa 0,0 l/m 0 min 0 min 0 W/m 25,1 km/h (4 Bft) 93,62 %
08.01.2016 06:22 3,8 C 3,9 C 2,2 C 84 % 0 lf 1001,3 hPa 0,0 l/m 0 min 0 min 0 W/m 20,9 km/h (4 Bft) 93,62 %
08.01.2016 06:24 3,8 C 3,9 C 2,2 C 84 % 0 lf 1001,3 hPa 0,0 l/m 0 min 0 min 0 W/m 25,1 km/h (4 Bft) 95,74 %
08.01.2016 06:26 3,8 C 3,9 C 2,2 C 84 % 0 lf 1001,2 hPa 0,0 l/m 0 min 0 min 0 W/m 33,5 km/h (5 Bft) 97,87 %
08.01.2016 06:28 3,8 C 3,9 C 2,2 C 85 % 0 lf 1001,3 hPa 0,0 l/m 0 min 0 min 0 W/m 27,2 km/h (4 Bft) 97,83 %
08.01.2016 06:30 3,8 C 3,9 C 2,2 C 85 % 0 lf 1001,3 hPa 0,0 l/m 0 min 0 min 0 W/m 25,1 km/h (4 Bft) 93,62 %
08.01.2016 06:32 3,8 C 3,9 C 2,2 C 85 % 0 lf 1001,3 hPa 0,0 l/m 0 min 0 min 0 W/m 39,7 km/h (6 Bft) 93,62 %
08.01.2016 06:34 3,8 C 3,9 C 2,2 C 85 % 0 lf 1001,3 hPa 0,0 l/m 0 min 0 min 0 W/m 23,0 km/h (4 Bft) 97,87 %
08.01.2016 06:36 3,7 C 3,9 C 2,2 C 85 % 0 lf 1001,3 hPa 0,0 l/m 0 min 0 min 0 W/m 31,4 km/h (5 Bft) 95,74 %
08.01.2016 06:38 3,7 C 3,9 C 2,2 C 85 % 0 lf 1001,3 hPa 0,0 l/m 0 min 0 min 0 W/m 29,3 km/h (5 Bft) 97,83 %
08.01.2016 06:40 3,7 C 3,9 C 2,2 C 85 % 0 lf 1001,3 hPa 0,0 l/m 0 min 0 min 0 W/m 31,4 km/h (5 Bft) 97,87 %
08.01.2016 06:42 3,7 C 3,9 C 2,2 C 85 % 0 lf 1001,3 hPa 0,0 l/m 0 min 0 min 0 W/m 29,3 km/h (5 Bft) 93,62 %
08.01.2016 06:44 3,7 C 3,9 C 2,2 C 85 % 0 lf 1001,3 hPa 0,0 l/m 0 min 0 min 0 W/m 31,4 km/h (5 Bft) 95,74 %
08.01.2016 06:46 3,7 C 3,9 C 2,2 C 86 % 0 lf 1001,4 hPa 0,0 l/m 0 min 0 min 0 W/m 31,4 km/h (5 Bft) 93,62 %
08.01.2016 06:48 3,7 C 3,9 C 2,2 C 86 % 0 lf 1001,4 hPa 0,0 l/m 0 min 0 min 0 W/m 31,4 km/h (5 Bft) 97,87 %
08.01.2016 06:50 3,7 C 3,9 C 2,2 C 86 % 0 lf 1001,4 hPa 0,0 l/m 0 min 0 min 0 W/m 35,6 km/h (5 Bft) 97,83 %
08.01.2016 06:52 3,8 C 3,9 C 2,2 C 86 % 0 lf 1001,4 hPa 0,0 l/m 0 min 0 min 0 W/m 37,7 km/h (5 Bft) 100,00 %
08.01.2016 06:54 3,8 C 3,9 C 2,2 C 86 % 0 lf 1001,5 hPa 0,0 l/m 0 min 0 min 0 W/m 27,2 km/h (4 Bft) 100,00 %
08.01.2016 06:56 3,8 C 3,9 C 2,2 C 86 % 0 lf 1001,6 hPa 0,0 l/m 0 min 0 min 0 W/m 31,4 km/h (5 Bft) 100,00 %
08.01.2016 06:58 3,8 C 3,9 C 2,2 C 86 % 0 lf 1001,6 hPa 0,0 l/m 0 min 0 min 0 W/m 25,1 km/h (4 Bft) 97,87 %
08.01.2016 07:00 3,8 C 3,9 C 2,2 C 86 % 0 lf 1001,5 hPa 0,0 l/m 0 min 0 min 0 W/m 23,0 km/h (4 Bft) 95,74 %
08.01.2016 07:02 3,8 C 3,9 C 2,2 C 86 % 0 lf 1001,5 hPa 0,0 l/m 0 min 0 min 0 W/m 29,3 km/h (5 Bft) 100,00 %
08.01.2016 07:04 3,8 C 3,9 C 2,2 C 86 % 0 lf 1001,6 hPa 0,0 l/m 0 min 0 min 0 W/m 25,1 km/h (4 Bft) 95,74 %
08.01.2016 07:06 3,8 C 3,9 C 2,2 C 86 % 0 lf 1001,5 hPa 0,0 l/m 0 min 0 min 0 W/m 35,6 km/h (5 Bft) 100,00 %
08.01.2016 07:08 3,8 C 3,9 C 2,2 C 86 % 0 lf 1001,6 hPa 0,0 l/m 0 min 0 min 0 W/m 31,4 km/h (5 Bft) 95,74 %
08.01.2016 07:10 3,8 C 3,9 C 2,2 C 86 % 0 lf 1001,7 hPa 0,0 l/m 0 min 0 min 0 W/m 29,3 km/h (5 Bft) 95,74 %
08.01.2016 07:12 3,8 C 3,9 C 2,2 C 86 % 0 lf 1001,6 hPa 0,0 l/m 0 min 0 min 0 W/m 41,8 km/h (6 Bft) 100,00 %
08.01.2016 07:14 3,8 C 3,9 C 2,2 C 86 % 0 lf 1001,8 hPa 0,0 l/m 0 min 0 min 0 W/m 31,4 km/h (5 Bft) 100,00 %
08.01.2016 07:16 3,8 C 3,9 C 2,2 C 87 % 0 lf 1001,8 hPa 0,0 l/m 0 min 0 min 0 W/m 33,5 km/h (5 Bft) 100,00 %
08.01.2016 07:18 3,8 C 3,9 C 2,2 C 87 % 0 lf 1001,9 hPa 0,0 l/m 0 min 0 min 0 W/m 27,2 km/h (4 Bft) 100,00 %
08.01.2016 07:20 3,8 C 3,9 C 2,2 C 87 % 0 lf 1001,9 hPa 0,0 l/m 0 min 0 min 0 W/m 27,2 km/h (4 Bft) 97,87 %
08.01.2016 07:22 3,8 C 3,9 C 2,2 C 87 % 0 lf 1001,9 hPa 0,0 l/m 0 min 0 min 0 W/m 31,4 km/h (5 Bft) 100,00 %
08.01.2016 07:24 3,7 C 3,9 C 2,2 C 87 % 0 lf 1001,9 hPa 0,0 l/m 0 min 0 min 0 W/m 31,4 km/h (5 Bft) 100,00 %
08.01.2016 07:26 3,7 C 3,9 C 2,2 C 87 % 0 lf 1002,0 hPa 0,0 l/m 0 min 0 min 0 W/m 31,4 km/h (5 Bft) 95,65 %
08.01.2016 07:28 3,7 C 3,9 C 2,2 C 87 % 0 lf 1002,0 hPa 0,0 l/m 0 min 0 min 0 W/m 27,2 km/h (4 Bft) 97,87 %
08.01.2016 07:30 3,7 C 3,9 C 2,2 C 87 % 0 lf 1002,0 hPa 0,0 l/m 0 min 0 min 0 W/m 25,1 km/h (4 Bft) 97,87 %
08.01.2016 07:32 3,7 C 3,9 C 2,2 C 87 % 0 lf 1002,0 hPa 0,0 l/m 0 min 0 min 0 W/m 29,3 km/h (5 Bft) 97,87 %
08.01.2016 07:34 3,7 C 3,9 C 2,2 C 87 % 0 lf 1002,0 hPa 0,0 l/m 0 min 0 min 0 W/m 20,9 km/h (4 Bft) 100,00 %
08.01.2016 07:36 3,7 C 3,3 C 2,2 C 87 % 0 lf 1002,0 hPa 0,0 l/m 0 min 0 min 0 W/m 23,0 km/h (4 Bft) 100,00 %
08.01.2016 07:38 3,7 C 3,3 C 2,2 C 87 % 0 lf 1002,0 hPa 0,0 l/m 0 min 0 min 0 W/m 23,0 km/h (4 Bft) 97,83 %
08.01.2016 07:40 3,7 C 3,3 C 2,2 C 87 % 0 lf 1002,0 hPa 0,0 l/m 0 min 0 min 0 W/m 23,0 km/h (4 Bft) 97,87 %
08.01.2016 07:42 3,7 C 3,3 C 2,2 C 88 % 0 lf 1001,9 hPa 0,0 l/m 0 min 0 min 0 W/m 23,0 km/h (4 Bft) 97,87 %
08.01.2016 07:44 3,7 C 3,3 C 2,2 C 88 % 0 lf 1002,0 hPa 0,0 l/m 0 min 0 min 0 W/m 25,1 km/h (4 Bft) 95,74 %
08.01.2016 07:46 3,7 C 3,3 C 2,2 C 88 % 0 lf 1002,0 hPa 0,0 l/m 0 min 0 min 0 W/m 18,8 km/h (3 Bft) 95,74 %
08.01.2016 07:48 3,7 C 3,3 C 2,2 C 88 % 0 lf 1002,0 hPa 0,0 l/m 0 min 0 min 0 W/m 25,1 km/h (4 Bft) 97,83 %
08.01.2016 07:50 3,7 C 3,3 C 2,2 C 88 % 0 lf 1001,9 hPa 0,0 l/m 0 min 0 min 0 W/m 25,1 km/h (4 Bft) 95,74 %
08.01.2016 07:52 3,6 C 3,3 C 2,2 C 88 % 0 lf 1002,0 hPa 0,0 l/m 0 min 0 min 0 W/m 27,2 km/h (4 Bft) 97,87 %
08.01.2016 07:54 3,6 C 3,3 C 2,2 C 88 % 0 lf 1002,0 hPa 0,0 l/m 0 min 0 min 0 W/m 33,5 km/h (5 Bft) 95,74 %
08.01.2016 07:56 3,6 C 3,3 C 2,2 C 88 % 0 lf 1002,0 hPa 0,0 l/m 0 min 0 min 0 W/m 31,4 km/h (5 Bft) 95,74 %
08.01.2016 07:58 3,6 C 3,3 C 2,2 C 88 % 0 lf 1002,0 hPa 0,0 l/m 0 min 0 min 0 W/m 31,4 km/h (5 Bft) 97,87 %
08.01.2016 08:00 3,6 C 3,3 C 2,2 C 88 % 0 lf 1002,0 hPa 0,0 l/m 0 min 0 min 0 W/m 20,9 km/h (4 Bft) 93,48 %
08.01.2016 08:02 3,6 C 3,3 C 2,2 C 88 % 0 lf 1002,0 hPa 0,0 l/m 0 min 0 min 0 W/m 25,1 km/h (4 Bft) 93,62 %
08.01.2016 08:04 3,6 C 3,3 C 2,2 C 88 % 0 lf 1002,0 hPa 0,0 l/m 0 min 0 min 0 W/m 25,1 km/h (4 Bft) 91,49 %
08.01.2016 08:06 3,6 C 3,3 C 2,2 C 88 % 0 lf 1002,0 hPa 0,0 l/m 0 min 0 min 0 W/m 31,4 km/h (5 Bft) 91,49 %
08.01.2016 08:08 3,6 C 3,3 C 2,2 C 89 % 0 lf 1002,1 hPa 0,0 l/m 0 min 0 min 0 W/m 25,1 km/h (4 Bft) 89,36 %
08.01.2016 08:10 3,6 C 3,3 C 2,2 C 89 % 0 lf 1002,1 hPa 0,0 l/m 0 min 0 min 0 W/m 23,0 km/h (4 Bft) 89,36 %
08.01.2016 08:12 3,6 C 3,3 C 2,2 C 89 % 0 lf 1002,1 hPa 0,0 l/m 0 min 0 min 0 W/m 25,1 km/h (4 Bft) 91,30 %
08.01.2016 08:14 3,5 C 3,3 C 2,2 C 89 % 0 lf 1002,1 hPa 0,0 l/m 0 min 0 min 0 W/m 20,9 km/h (4 Bft) 91,49 %
08.01.2016 08:16 3,5 C 3,3 C 2,2 C 89 % 0 lf 1002,2 hPa 0,0 l/m 0 min 0 min 0 W/m 14,6 km/h (3 Bft) 93,62 %
08.01.2016 08:18 3,5 C 3,3 C 2,2 C 89 % 0 lf 1002,3 hPa 0,0 l/m 0 min 0 min 0 W/m 20,9 km/h (4 Bft) 93,62 %
08.01.2016 08:20 3,5 C 3,3 C 2,2 C 89 % 0 lf 1002,4 hPa 0,0 l/m 0 min 0 min 0 W/m 25,1 km/h (4 Bft) 93,62 %
08.01.2016 08:22 3,4 C 3,3 C 2,2 C 89 % 0 lf 1002,4 hPa 0,0 l/m 0 min 0 min 0 W/m 25,1 km/h (4 Bft) 91,49 %
08.01.2016 08:24 3,4 C 3,3 C 2,2 C 89 % 0 lf 1002,4 hPa 0,0 l/m 0 min 0 min 0 W/m 23,0 km/h (4 Bft) 91,30 %
08.01.2016 08:26 3,4 C 3,3 C 1,7 C 89 % 0 lf 1002,4 hPa 0,0 l/m 0 min 0 min 3 W/m 16,7 km/h (3 Bft) 91,49 %
08.01.2016 08:28 3,4 C 3,3 C 1,7 C 89 % 0 lf 1002,3 hPa 0,0 l/m 0 min 0 min 5 W/m 14,6 km/h (3 Bft) 89,36 %
08.01.2016 08:30 3,4 C 3,3 C 1,7 C 89 % 0 lf 1002,4 hPa 0,0 l/m 0 min 0 min 5 W/m 23,0 km/h (4 Bft) 93,62 %
08.01.2016 08:32 3,4 C 3,3 C 1,7 C 89 % 0 lf 1002,3 hPa 0,0 l/m 0 min 0 min 5 W/m 20,9 km/h (4 Bft) 93,62 %
08.01.2016 08:34 3,4 C 3,3 C 1,7 C 89 % 0 lf 1002,4 hPa 0,0 l/m 0 min 0 min 5 W/m 23,0 km/h (4 Bft) 95,65 %
08.01.2016 08:36 3,3 C 3,3 C 2,2 C 89 % 0 lf 1002,4 hPa 0,0 l/m 0 min 0 min 7 W/m 27,2 km/h (4 Bft) 91,49 %
08.01.2016 08:38 3,3 C 3,3 C 1,7 C 89 % 0 lf 1002,4 hPa 0,0 l/m 0 min 0 min 7 W/m 20,9 km/h (4 Bft) 95,74 %
08.01.2016 08:40 3,3 C 3,3 C 2,2 C 89 % 0 lf 1002,4 hPa 0,0 l/m 0 min 0 min 7 W/m 25,1 km/h (4 Bft) 95,74 %
08.01.2016 08:42 3,3 C 3,3 C 2,2 C 90 % 0 lf 1002,4 hPa 0,0 l/m 0 min 0 min 9 W/m 25,1 km/h (4 Bft) 95,74 %
08.01.2016 08:44 3,3 C 3,3 C 2,2 C 90 % 0 lf 1002,4 hPa 0,0 l/m 0 min 0 min 9 W/m 23,0 km/h (4 Bft) 97,87 %
08.01.2016 08:46 3,3 C 3,3 C 2,2 C 90 % 0 lf 1002,5 hPa 0,0 l/m 0 min 0 min 11 W/m 18,8 km/h (3 Bft) 97,87 %
08.01.2016 08:48 3,3 C 3,3 C 2,2 C 90 % 0 lf 1002,5 hPa 0,0 l/m 0 min 0 min 11 W/m 31,4 km/h (5 Bft) 97,83 %
08.01.2016 08:50 3,4 C 3,3 C 2,2 C 90 % 0 lf 1002,4 hPa 0,0 l/m 0 min 0 min 12 W/m 31,4 km/h (5 Bft) 97,87 %
08.01.2016 08:52 3,4 C 3,3 C 2,2 C 90 % 0 lf 1002,5 hPa 0,0 l/m 0 min 0 min 13 W/m 33,5 km/h (5 Bft) 97,87 %
08.01.2016 08:54 3,4 C 3,9 C 2,2 C 90 % 0 lf 1002,5 hPa 0,0 l/m 0 min 0 min 15 W/m 23,0 km/h (4 Bft) 95,74 %
08.01.2016 08:56 3,4 C 3,9 C 2,2 C 90 % 0 lf 1002,5 hPa 0,0 l/m 0 min 0 min 16 W/m 29,3 km/h (5 Bft) 95,74 %
08.01.2016 08:58 3,4 C 3,9 C 2,2 C 90 % 0 lf 1002,6 hPa 0,0 l/m 0 min 0 min 18 W/m 27,2 km/h (4 Bft) 95,65 %
08.01.2016 09:00 3,4 C 3,9 C 2,2 C 90 % 0 lf 1002,6 hPa 0,0 l/m 0 min 0 min 18 W/m 29,3 km/h (5 Bft) 95,74 %
08.01.2016 09:02 3,4 C 3,9 C 2,2 C 90 % 0 lf 1002,6 hPa 0,0 l/m 0 min 0 min 19 W/m 35,6 km/h (5 Bft) 93,62 %
08.01.2016 09:04 3,5 C 3,9 C 2,2 C 90 % 0 lf 1002,6 hPa 0,0 l/m 0 min 0 min 21 W/m 29,3 km/h (5 Bft) 95,74 %
08.01.2016 09:06 3,5 C 3,9 C 2,2 C 90 % 0 lf 1002,6 hPa 0,0 l/m 0 min 0 min 22 W/m 29,3 km/h (5 Bft) 97,87 %
08.01.2016 09:08 3,5 C 3,9 C 2,2 C 90 % 0 lf 1002,7 hPa 0,0 l/m 0 min 0 min 23 W/m 29,3 km/h (5 Bft) 91,49 %
08.01.2016 09:10 3,5 C 3,9 C 2,2 C 90 % 0 lf 1002,7 hPa 0,0 l/m 0 min 0 min 25 W/m 25,1 km/h (4 Bft) 97,83 %
08.01.2016 09:12 3,5 C 3,9 C 2,2 C 90 % 0 lf 1002,7 hPa 0,0 l/m 0 min 0 min 26 W/m 31,4 km/h (5 Bft) 97,87 %
08.01.2016 09:14 3,5 C 3,9 C 2,2 C 90 % 0 lf 1002,8 hPa 0,0 l/m 0 min 0 min 27 W/m 25,1 km/h (4 Bft) 97,87 %
08.01.2016 09:16 3,5 C 3,9 C 2,2 C 90 % 0 lf 1002,8 hPa 0,0 l/m 0 min 0 min 29 W/m 18,8 km/h (3 Bft) 95,74 %
08.01.2016 09:18 3,6 C 3,9 C 2,2 C 90 % 0 lf 1002,8 hPa 0,0 l/m 0 min 0 min 31 W/m 20,9 km/h (4 Bft) 95,74 %
08.01.2016 09:20 3,6 C 3,9 C 2,2 C 90 % 0 lf 1002,9 hPa 0,0 l/m 0 min 0 min 33 W/m 25,1 km/h (4 Bft) 95,74 %
08.01.2016 09:22 3,6 C 3,9 C 2,2 C 90 % 0 lf 1002,9 hPa 0,0 l/m 0 min 0 min 37 W/m 18,8 km/h (3 Bft) 95,65 %
08.01.2016 09:24 3,6 C 3,9 C 2,2 C 90 % 0 lf 1003,0 hPa 0,0 l/m 2 min 0 min 44 W/m 23,0 km/h (4 Bft) 97,87 %
08.01.2016 09:26 3,6 C 3,9 C 2,8 C 90 % 0 lf 1003,0 hPa 0,0 l/m 2 min 0 min 48 W/m 37,7 km/h (5 Bft) 97,87 %
08.01.2016 09:28 3,6 C 3,9 C 2,8 C 90 % 0 lf 1003,1 hPa 0,0 l/m 2 min 0 min 52 W/m 14,6 km/h (3 Bft) 97,87 %
08.01.2016 09:30 3,6 C 4,4 C 2,8 C 90 % 0 lf 1003,1 hPa 0,0 l/m 2 min 0 min 54 W/m 20,9 km/h (4 Bft) 93,62 %
08.01.2016 09:32 3,6 C 4,4 C 2,8 C 90 % 0 lf 1003,2 hPa 0,0 l/m 2 min 0 min 54 W/m 20,9 km/h (4 Bft) 97,87 %
08.01.2016 09:34 3,7 C 4,4 C 2,8 C 90 % 0 lf 1003,1 hPa 0,0 l/m 2 min 0 min 54 W/m 25,1 km/h (4 Bft) 97,83 %
08.01.2016 09:36 3,7 C 4,4 C 2,8 C 90 % 0 lf 1003,1 hPa 0,0 l/m 2 min 0 min 54 W/m 14,6 km/h (3 Bft) 95,74 %
08.01.2016 09:38 3,7 C 4,4 C 2,8 C 90 % 0 lf 1003,2 hPa 0,0 l/m 0 min 0 min 55 W/m 16,7 km/h (3 Bft) 97,87 %
08.01.2016 09:40 3,7 C 4,4 C 2,8 C 90 % 0 lf 1003,2 hPa 0,0 l/m 2 min 0 min 59 W/m 14,6 km/h (3 Bft) 95,74 %
08.01.2016 09:42 3,7 C 4,4 C 2,8 C 90 % 0 lf 1003,2 hPa 0,0 l/m 2 min 0 min 61 W/m 16,7 km/h (3 Bft) 97,87 %
08.01.2016 09:44 3,7 C 4,4 C 2,8 C 90 % 0 lf 1003,3 hPa 0,0 l/m 2 min 0 min 64 W/m 25,1 km/h (4 Bft) 97,87 %
08.01.2016 09:46 3,8 C 4,4 C 2,8 C 90 % 0 lf 1003,3 hPa 0,0 l/m 2 min 0 min 66 W/m 20,9 km/h (4 Bft) 95,65 %
08.01.2016 09:48 3,8 C 4,4 C 2,8 C 90 % 0 lf 1003,3 hPa 0,0 l/m 2 min 0 min 70 W/m 10,5 km/h (2 Bft) 97,87 %
08.01.2016 09:50 3,8 C 4,4 C 2,8 C 90 % 0 lf 1003,4 hPa 0,0 l/m 2 min 0 min 73 W/m 18,8 km/h (3 Bft) 97,87 %
08.01.2016 09:52 3,8 C 4,4 C 2,8 C 89 % 0 lf 1003,5 hPa 0,0 l/m 2 min 0 min 76 W/m 16,7 km/h (3 Bft) 95,74 %
08.01.2016 09:54 3,8 C 4,4 C 2,8 C 89 % 0 lf 1003,5 hPa 0,0 l/m 2 min 0 min 77 W/m 16,7 km/h (3 Bft) 95,74 %
08.01.2016 09:56 3,9 C 4,4 C 2,8 C 89 % 0 lf 1003,5 hPa 0,0 l/m 2 min 0 min 82 W/m 18,8 km/h (3 Bft) 95,65 %
08.01.2016 09:58 3,9 C 4,4 C 2,8 C 89 % 0 lf 1003,5 hPa 0,0 l/m 2 min 0 min 84 W/m 14,6 km/h (3 Bft) 95,74 %
08.01.2016 10:00 3,9 C 5,0 C 2,8 C 89 % 0 lf 1003,6 hPa 0,0 l/m 2 min 0 min 87 W/m 25,1 km/h (4 Bft) 97,87 %
08.01.2016 10:02 3,9 C 5,0 C 2,8 C 90 % 0 lf 1003,6 hPa 0,0 l/m 2 min 0 min 90 W/m 14,6 km/h (3 Bft) 95,74 %
08.01.2016 10:04 4,0 C 5,0 C 3,3 C 89 % 0 lf 1003,6 hPa 0,0 l/m 2 min 0 min 94 W/m 23,0 km/h (4 Bft) 95,74 %
08.01.2016 10:06 4,1 C 5,0 C 3,3 C 89 % 0 lf 1003,6 hPa 0,0 l/m 2 min 0 min 98 W/m 25,1 km/h (4 Bft) 95,74 %
08.01.2016 10:08 4,1 C 5,0 C 3,3 C 89 % 0 lf 1003,5 hPa 0,0 l/m 2 min 0 min 102 W/m 23,0 km/h (4 Bft) 95,65 %
08.01.2016 10:10 4,1 C 5,0 C 3,3 C 89 % 0 lf 1003,5 hPa 0,0 l/m 2 min 0 min 104 W/m 20,9 km/h (4 Bft) 95,74 %
08.01.2016 10:12 4,2 C 5,0 C 3,3 C 89 % 0 lf 1003,5 hPa 0,0 l/m 2 min 0 min 107 W/m 14,6 km/h (3 Bft) 95,74 %
08.01.2016 10:14 4,2 C 5,0 C 3,3 C 89 % 0 lf 1003,5 hPa 0,0 l/m 2 min 0 min 111 W/m 18,8 km/h (3 Bft) 91,49 %
08.01.2016 10:16 4,2 C 5,0 C 3,3 C 89 % 0 lf 1003,5 hPa 0,0 l/m 2 min 0 min 115 W/m 20,9 km/h (4 Bft) 100,00 %
08.01.2016 10:18 4,3 C 5,0 C 3,3 C 89 % 0 lf 1003,6 hPa 0,0 l/m 2 min 0 min 119 W/m 16,7 km/h (3 Bft) 97,87 %
08.01.2016 10:20 4,3 C 5,6 C 3,3 C 89 % 0 lf 1003,6 hPa 0,0 l/m 2 min 0 min 121 W/m 20,9 km/h (4 Bft) 91,30 %
08.01.2016 10:22 4,3 C 5,6 C 3,3 C 89 % 0 lf 1003,6 hPa 0,0 l/m 2 min 0 min 124 W/m 16,7 km/h (3 Bft) 91,49 %
08.01.2016 10:24 4,4 C 5,6 C 3,3 C 89 % 0 lf 1003,6 hPa 0,0 l/m 2 min 0 min 127 W/m 14,6 km/h (3 Bft) 95,74 %
08.01.2016 10:26 4,4 C 5,6 C 3,3 C 88 % 0 lf 1003,7 hPa 0,0 l/m 2 min 0 min 130 W/m 20,9 km/h (4 Bft) 89,36 %
08.01.2016 10:28 4,4 C 5,6 C 3,3 C 88 % 0 lf 1003,6 hPa 0,0 l/m 2 min 0 min 133 W/m 18,8 km/h (3 Bft) 95,74 %
08.01.2016 10:30 4,5 C 5,6 C 3,9 C 88 % 0 lf 1003,7 hPa 0,0 l/m 2 min 0 min 134 W/m 12,6 km/h (3 Bft) 95,74 %
08.01.2016 10:32 4,5 C 5,6 C 3,9 C 88 % 0 lf 1003,8 hPa 0,0 l/m 2 min 0 min 137 W/m 14,6 km/h (3 Bft) 93,48 %
08.01.2016 10:34 4,6 C 5,6 C 3,9 C 88 % 0 lf 1003,8 hPa 0,0 l/m 2 min 0 min 142 W/m 20,9 km/h (4 Bft) 95,74 %
08.01.2016 10:36 4,6 C 5,6 C 3,9 C 88 % 0 lf 1003,9 hPa 0,0 l/m 2 min 0 min 146 W/m 16,7 km/h (3 Bft) 97,87 %
08.01.2016 10:38 4,6 C 5,6 C 3,9 C 88 % 0 lf 1003,9 hPa 0,0 l/m 2 min 0 min 149 W/m 20,9 km/h (4 Bft) 97,87 %
08.01.2016 10:40 4,7 C 6,1 C 3,9 C 88 % 0 lf 1003,9 hPa 0,0 l/m 2 min 0 min 151 W/m 16,7 km/h (3 Bft) 97,87 %
08.01.2016 10:42 4,7 C 6,1 C 3,9 C 88 % 0 lf 1003,9 hPa 0,0 l/m 2 min 0 min 155 W/m 12,6 km/h (3 Bft) 95,74 %
08.01.2016 10:44 4,7 C 6,1 C 3,9 C 88 % 0 lf 1004,0 hPa 0,0 l/m 2 min 0 min 158 W/m 23,0 km/h (4 Bft) 89,13 %
08.01.2016 10:46 4,8 C 6,7 C 3,9 C 88 % 0 lf 1003,9 hPa 0,0 l/m 2 min 0 min 161 W/m 27,2 km/h (4 Bft) 95,74 %
08.01.2016 10:48 4,8 C 6,7 C 3,9 C 88 % 0 lf 1004,0 hPa 0,0 l/m 2 min 0 min 166 W/m 25,1 km/h (4 Bft) 97,87 %
08.01.2016 10:50 4,9 C 8,3 C 3,9 C 87 % 0 lf 1004,0 hPa 0,0 l/m 2 min 0 min 168 W/m 18,8 km/h (3 Bft) 93,62 %
08.01.2016 10:52 4,9 C 8,9 C 3,9 C 87 % 0 lf 1004,0 hPa 0,0 l/m 2 min 0 min 171 W/m 18,8 km/h (3 Bft) 97,87 %
08.01.2016 10:54 4,9 C 9,4 C 3,9 C 87 % 0 lf 1003,9 hPa 0,0 l/m 2 min 0 min 172 W/m 18,8 km/h (3 Bft) 97,87 %
08.01.2016 10:56 5,0 C 9,4 C 3,9 C 87 % 0 lf 1003,9 hPa 0,0 l/m 2 min 0 min 176 W/m 16,7 km/h (3 Bft) 91,30 %
08.01.2016 10:58 5,1 C 10,0 C 3,9 C 87 % 0 lf 1003,9 hPa 0,0 l/m 2 min 0 min 178 W/m 20,9 km/h (4 Bft) 91,49 %
08.01.2016 11:00 5,1 C 10,6 C 3,9 C 87 % 0 lf 1003,9 hPa 0,0 l/m 2 min 0 min 181 W/m 23,0 km/h (4 Bft) 91,49 %
08.01.2016 11:02 5,2 C 11,1 C 3,9 C 87 % 0 lf 1004,0 hPa 0,0 l/m 2 min 0 min 184 W/m 27,2 km/h (4 Bft) 93,62 %
08.01.2016 11:04 5,2 C 11,1 C 3,9 C 87 % 0 lf 1004,0 hPa 0,0 l/m 2 min 0 min 186 W/m 18,8 km/h (3 Bft) 95,74 %
08.01.2016 11:06 5,3 C 11,1 C 4,4 C 87 % 0 lf 1004,0 hPa 0,0 l/m 2 min 0 min 189 W/m 25,1 km/h (4 Bft) 95,65 %
08.01.2016 11:08 5,3 C 11,1 C 4,4 C 87 % 0 lf 1004,0 hPa 0,0 l/m 2 min 0 min 191 W/m 16,7 km/h (3 Bft) 95,74 %
08.01.2016 11:10 5,4 C 11,1 C 4,4 C 87 % 0 lf 1004,0 hPa 0,0 l/m 2 min 0 min 193 W/m 18,8 km/h (3 Bft) 95,74 %
08.01.2016 11:12 5,4 C 11,7 C 4,4 C 87 % 0 lf 1004,0 hPa 0,0 l/m 2 min 0 min 195 W/m 18,8 km/h (3 Bft) 93,62 %
08.01.2016 11:14 5,5 C 11,7 C 4,4 C 86 % 0 lf 1004,0 hPa 0,0 l/m 2 min 0 min 198 W/m 25,1 km/h (4 Bft) 95,74 %
08.01.2016 11:16 5,6 C 11,1 C 4,4 C 86 % 0 lf 1004,0 hPa 0,0 l/m 2 min 0 min 200 W/m 18,8 km/h (3 Bft) 95,74 %
08.01.2016 11:18 5,7 C 10,6 C 4,4 C 86 % 0 lf 1004,0 hPa 0,0 l/m 2 min 0 min 203 W/m 23,0 km/h (4 Bft) 93,48 %
08.01.2016 11:20 5,7 C 10,6 C 4,4 C 86 % 0 lf 1004,0 hPa 0,0 l/m 2 min 0 min 206 W/m 29,3 km/h (5 Bft) 97,87 %
08.01.2016 11:22 5,8 C 10,6 C 4,4 C 85 % 0 lf 1004,0 hPa 0,0 l/m 2 min 0 min 207 W/m 23,0 km/h (4 Bft) 95,74 %
08.01.2016 11:24 5,8 C 11,7 C 4,4 C 85 % 0 lf 1004,0 hPa 0,0 l/m 2 min 0 min 209 W/m 20,9 km/h (4 Bft) 95,74 %
08.01.2016 11:26 5,9 C 12,8 C 4,4 C 85 % 0 lf 1004,0 hPa 0,0 l/m 2 min 0 min 211 W/m 23,0 km/h (4 Bft) 97,87 %
08.01.2016 11:28 5,9 C 12,2 C 4,4 C 85 % 0 lf 1004,0 hPa 0,0 l/m 2 min 0 min 213 W/m 20,9 km/h (4 Bft) 100,00 %
08.01.2016 11:30 6,0 C 12,2 C 4,4 C 85 % 0 lf 1004,0 hPa 0,0 l/m 2 min 0 min 215 W/m 27,2 km/h (4 Bft) 100,00 %
08.01.2016 11:32 6,1 C 13,3 C 4,4 C 85 % 0 lf 1004,0 hPa 0,0 l/m 2 min 0 min 218 W/m 23,0 km/h (4 Bft) 97,22 %
08.01.2016 11:34 6,1 C 12,8 C 4,4 C 84 % 0 lf 1004,0 hPa 0,0 l/m 2 min 0 min 220 W/m 23,0 km/h (4 Bft) 97,83 %
08.01.2016 11:36 6,2 C 12,8 C 5,0 C 84 % 0 lf 1004,0 hPa 0,0 l/m 2 min 0 min 221 W/m 20,9 km/h (4 Bft) 100,00 %
08.01.2016 11:38 6,2 C 12,8 C 5,0 C 84 % 0 lf 1004,0 hPa 0,0 l/m 2 min 0 min 222 W/m 20,9 km/h (4 Bft) 100,00 %
08.01.2016 11:40 6,3 C 12,2 C 5,0 C 84 % 0 lf 1004,0 hPa 0,0 l/m 2 min 0 min 223 W/m 20,9 km/h (4 Bft) 97,87 %
08.01.2016 11:42 6,3 C 12,8 C 5,0 C 84 % 0 lf 1004,0 hPa 0,0 l/m 2 min 0 min 224 W/m 12,6 km/h (3 Bft) 100,00 %
08.01.2016 11:44 6,4 C 12,2 C 5,0 C 84 % 0 lf 1004,0 hPa 0,0 l/m 2 min 0 min 223 W/m 27,2 km/h (4 Bft) 91,49 %
08.01.2016 11:46 6,4 C 12,8 C 5,0 C 84 % 0 lf 1004,0 hPa 0,0 l/m 2 min 0 min 225 W/m 25,1 km/h (4 Bft) 100,00 %
08.01.2016 11:48 6,5 C 12,2 C 5,0 C 83 % 0 lf 1004,0 hPa 0,0 l/m 2 min 0 min 229 W/m 18,8 km/h (3 Bft) 100,00 %
08.01.2016 11:50 6,6 C 12,2 C 5,0 C 83 % 0 lf 1004,0 hPa 0,0 l/m 2 min 0 min 229 W/m 27,2 km/h (4 Bft) 93,62 %
08.01.2016 11:52 6,6 C 13,3 C 5,0 C 83 % 0 lf 1004,0 hPa 0,0 l/m 2 min 0 min 231 W/m 20,9 km/h (4 Bft) 100,00 %
08.01.2016 11:54 6,7 C 12,2 C 5,0 C 83 % 0 lf 1004,0 hPa 0,0 l/m 2 min 0 min 231 W/m 23,0 km/h (4 Bft) 97,87 %
08.01.2016 11:56 6,8 C 12,8 C 5,0 C 83 % 0 lf 1004,0 hPa 0,0 l/m 2 min 0 min 234 W/m 16,7 km/h (3 Bft) 95,65 %
08.01.2016 11:58 6,8 C 12,2 C 5,0 C 83 % 0 lf 1004,0 hPa 0,0 l/m 2 min 0 min 236 W/m 27,2 km/h (4 Bft) 97,87 %
08.01.2016 12:00 6,8 C 11,7 C 5,0 C 82 % 0 lf 1004,0 hPa 0,0 l/m 2 min 0 min 236 W/m 25,1 km/h (4 Bft) 97,87 %
08.01.2016 12:02 6,9 C 12,8 C 5,0 C 82 % 0 lf 1003,9 hPa 0,0 l/m 2 min 0 min 237 W/m 20,9 km/h (4 Bft) 97,87 %
08.01.2016 12:04 6,9 C 13,3 C 5,0 C 82 % 0 lf 1003,9 hPa 0,0 l/m 2 min 0 min 240 W/m 25,1 km/h (4 Bft) 97,87 %
08.01.2016 12:06 6,9 C 13,9 C 5,0 C 82 % 0 lf 1004,0 hPa 0,0 l/m 2 min 0 min 240 W/m 23,0 km/h (4 Bft) 97,87 %
08.01.2016 12:08 7,0 C 12,8 C 5,0 C 82 % 0 lf 1004,0 hPa 0,0 l/m 2 min 0 min 239 W/m 18,8 km/h (3 Bft) 97,83 %
08.01.2016 12:10 7,1 C 12,8 C 5,6 C 82 % 0 lf 1004,0 hPa 0,0 l/m 2 min 0 min 241 W/m 23,0 km/h (4 Bft) 95,74 %
08.01.2016 12:12 7,1 C 13,3 C 5,6 C 82 % 0 lf 1003,9 hPa 0,0 l/m 2 min 0 min 243 W/m 25,1 km/h (4 Bft) 95,74 %
08.01.2016 12:14 7,1 C 13,9 C 5,6 C 81 % 0 lf 1003,9 hPa 0,0 l/m 2 min 0 min 243 W/m 20,9 km/h (4 Bft) 97,87 %
08.01.2016 12:16 7,1 C 12,2 C 5,6 C 81 % 0 lf 1003,9 hPa 0,0 l/m 2 min 0 min 243 W/m 27,2 km/h (4 Bft) 93,62 %
08.01.2016 12:18 7,1 C 11,7 C 5,6 C 81 % 0 lf 1003,9 hPa 0,0 l/m 2 min 0 min 243 W/m 27,2 km/h (4 Bft) 97,87 %
08.01.2016 12:20 7,2 C 11,7 C 5,6 C 81 % 0 lf 1004,0 hPa 0,0 l/m 2 min 0 min 244 W/m 29,3 km/h (5 Bft) 97,83 %
08.01.2016 12:22 7,2 C 11,7 C 5,6 C 81 % 0 lf 1003,9 hPa 0,0 l/m 2 min 0 min 246 W/m 23,0 km/h (4 Bft) 97,87 %
08.01.2016 12:24 7,2 C 12,8 C 5,6 C 81 % 0 lf 1003,9 hPa 0,0 l/m 2 min 0 min 245 W/m 23,0 km/h (4 Bft) 95,74 %
08.01.2016 12:26 7,2 C 12,8 C 5,6 C 81 % 0 lf 1003,9 hPa 0,0 l/m 2 min 0 min 246 W/m 20,9 km/h (4 Bft) 95,74 %
08.01.2016 12:28 7,2 C 13,3 C 5,6 C 81 % 0 lf 1003,9 hPa 0,0 l/m 2 min 0 min 245 W/m 25,1 km/h (4 Bft) 95,74 %
08.01.2016 12:30 7,3 C 12,8 C 5,6 C 80 % 0 lf 1003,9 hPa 0,0 l/m 2 min 0 min 247 W/m 27,2 km/h (4 Bft) 100,00 %
08.01.2016 12:32 7,3 C 12,2 C 5,6 C 80 % 0 lf 1003,9 hPa 0,0 l/m 2 min 0 min 247 W/m 23,0 km/h (4 Bft) 97,83 %
08.01.2016 12:34 7,3 C 12,8 C 5,6 C 80 % 0 lf 1003,8 hPa 0,0 l/m 2 min 0 min 247 W/m 20,9 km/h (4 Bft) 100,00 %
08.01.2016 12:36 7,3 C 12,2 C 5,6 C 80 % 0 lf 1003,8 hPa 0,0 l/m 2 min 0 min 246 W/m 20,9 km/h (4 Bft) 98,15 %
08.01.2016 12:38 7,3 C 11,7 C 5,6 C 80 % 0 lf 1003,7 hPa 0,0 l/m 2 min 0 min 246 W/m 29,3 km/h (5 Bft) 97,83 %
08.01.2016 12:40 7,3 C 11,1 C 5,6 C 80 % 0 lf 1003,7 hPa 0,0 l/m 2 min 0 min 244 W/m 18,8 km/h (3 Bft) 97,87 %
08.01.2016 12:42 7,4 C 10,6 C 5,6 C 80 % 0 lf 1003,8 hPa 0,0 l/m 2 min 0 min 244 W/m 18,8 km/h (3 Bft) 95,74 %
08.01.2016 12:44 7,4 C 11,1 C 5,6 C 80 % 0 lf 1003,7 hPa 0,0 l/m 2 min 0 min 244 W/m 25,1 km/h (4 Bft) 100,00 %
08.01.2016 12:46 7,4 C 11,1 C 5,6 C 80 % 0 lf 1003,8 hPa 0,0 l/m 2 min 0 min 244 W/m 16,7 km/h (3 Bft) 95,74 %
08.01.2016 12:48 7,4 C 11,7 C 5,6 C 80 % 0 lf 1003,7 hPa 0,0 l/m 2 min 0 min 243 W/m 25,1 km/h (4 Bft) 100,00 %
08.01.2016 12:50 7,4 C 12,2 C 5,6 C 80 % 0 lf 1003,7 hPa 0,0 l/m 2 min 0 min 243 W/m 20,9 km/h (4 Bft) 97,87 %
08.01.2016 12:52 7,5 C 11,7 C 5,6 C 79 % 0 lf 1003,6 hPa 0,0 l/m 2 min 0 min 243 W/m 25,1 km/h (4 Bft) 97,87 %
08.01.2016 12:54 7,5 C 11,7 C 6,1 C 79 % 0 lf 1003,6 hPa 0,0 l/m 2 min 0 min 242 W/m 20,9 km/h (4 Bft) 97,87 %
08.01.2016 12:56 7,5 C 12,2 C 6,1 C 79 % 0 lf 1003,5 hPa 0,0 l/m 2 min 0 min 241 W/m 25,1 km/h (4 Bft) 97,87 %
08.01.2016 12:58 7,6 C 12,8 C 6,1 C 79 % 0 lf 1003,4 hPa 0,0 l/m 2 min 0 min 240 W/m 23,0 km/h (4 Bft) 97,87 %
08.01.2016 13:00 7,6 C 12,8 C 6,1 C 79 % 0 lf 1003,4 hPa 0,0 l/m 2 min 0 min 239 W/m 16,7 km/h (3 Bft) 97,83 %
08.01.2016 13:02 7,6 C 12,8 C 6,1 C 79 % 0 lf 1003,4 hPa 0,0 l/m 2 min 0 min 239 W/m 16,7 km/h (3 Bft) 97,87 %
08.01.2016 13:04 7,7 C 12,2 C 6,1 C 79 % 0 lf 1003,4 hPa 0,0 l/m 2 min 0 min 237 W/m 16,7 km/h (3 Bft) 97,87 %
08.01.2016 13:06 7,7 C 11,7 C 6,1 C 79 % 0 lf 1003,3 hPa 0,0 l/m 2 min 0 min 237 W/m 20,9 km/h (4 Bft) 97,87 %
08.01.2016 13:08 7,7 C 13,3 C 6,1 C 79 % 0 lf 1003,3 hPa 0,0 l/m 2 min 0 min 236 W/m 14,6 km/h (3 Bft) 97,87 %
08.01.2016 13:10 7,8 C 14,4 C 6,1 C 79 % 0 lf 1003,2 hPa 0,0 l/m 2 min 0 min 235 W/m 18,8 km/h (3 Bft) 97,87 %
08.01.2016 13:12 7,8 C 14,4 C 6,1 C 79 % 0 lf 1003,3 hPa 0,0 l/m 2 min 0 min 234 W/m 18,8 km/h (3 Bft) 97,83 %
08.01.2016 13:14 7,8 C 14,4 C 6,1 C 79 % 0 lf 1003,2 hPa 0,0 l/m 2 min 0 min 232 W/m 16,7 km/h (3 Bft) 100,00 %
08.01.2016 13:16 7,9 C 13,3 C 6,1 C 79 % 0 lf 1003,2 hPa 0,0 l/m 2 min 0 min 231 W/m 23,0 km/h (4 Bft) 95,74 %
08.01.2016 13:18 7,9 C 12,8 C 6,1 C 79 % 0 lf 1003,1 hPa 0,0 l/m 2 min 0 min 229 W/m 18,8 km/h (3 Bft) 97,87 %
08.01.2016 13:20 7,9 C 13,3 C 6,1 C 79 % 0 lf 1003,1 hPa 0,0 l/m 2 min 0 min 229 W/m 14,6 km/h (3 Bft) 95,74 %
08.01.2016 13:22 8,0 C 12,8 C 6,1 C 78 % 0 lf 1003,1 hPa 0,0 l/m 2 min 0 min 227 W/m 16,7 km/h (3 Bft) 89,36 %
08.01.2016 13:24 8,0 C 12,8 C 6,1 C 78 % 0 lf 1003,1 hPa 0,0 l/m 2 min 0 min 225 W/m 14,6 km/h (3 Bft) 95,65 %
08.01.2016 13:26 8,1 C 14,4 C 6,7 C 78 % 0 lf 1003,0 hPa 0,0 l/m 2 min 0 min 224 W/m 20,9 km/h (4 Bft) 95,74 %
08.01.2016 13:28 8,1 C 14,4 C 6,7 C 78 % 0 lf 1003,0 hPa 0,0 l/m 2 min 0 min 223 W/m 14,6 km/h (3 Bft) 95,74 %
08.01.2016 13:30 8,2 C 14,4 C 6,7 C 78 % 0 lf 1003,0 hPa 0,0 l/m 2 min 0 min 221 W/m 18,8 km/h (3 Bft) 91,49 %
08.01.2016 13:32 8,2 C 13,3 C 6,7 C 78 % 0 lf 1003,0 hPa 0,0 l/m 2 min 0 min 218 W/m 18,8 km/h (3 Bft) 95,74 %
08.01.2016 13:34 8,2 C 12,2 C 6,7 C 77 % 0 lf 1003,0 hPa 0,0 l/m 2 min 0 min 218 W/m 25,1 km/h (4 Bft) 91,49 %
08.01.2016 13:36 8,2 C 12,2 C 6,7 C 77 % 0 lf 1003,0 hPa 0,0 l/m 2 min 0 min 214 W/m 27,2 km/h (4 Bft) 95,65 %
08.01.2016 13:38 8,2 C 12,2 C 6,7 C 76 % 0 lf 1003,0 hPa 0,0 l/m 2 min 0 min 212 W/m 20,9 km/h (4 Bft) 93,62 %
08.01.2016 13:40 8,2 C 12,8 C 6,7 C 76 % 0 lf 1002,9 hPa 0,0 l/m 2 min 0 min 211 W/m 18,8 km/h (3 Bft) 95,74 %
08.01.2016 13:42 8,2 C 13,9 C 6,7 C 76 % 0 lf 1002,9 hPa 0,0 l/m 2 min 0 min 207 W/m 16,7 km/h (3 Bft) 95,74 %
08.01.2016 13:44 8,2 C 15,0 C 6,7 C 77 % 0 lf 1002,8 hPa 0,0 l/m 2 min 0 min 207 W/m 18,8 km/h (3 Bft) 93,62 %
08.01.2016 13:46 8,3 C 15,0 C 6,7 C 77 % 0 lf 1002,7 hPa 0,0 l/m 2 min 0 min 205 W/m 23,0 km/h (4 Bft) 95,74 %
08.01.2016 13:48 8,3 C 13,3 C 6,7 C 77 % 0 lf 1002,8 hPa 0,0 l/m 2 min 0 min 203 W/m 37,7 km/h (5 Bft) 91,30 %
08.01.2016 13:50 8,3 C 13,3 C 6,7 C 76 % 0 lf 1002,8 hPa 0,0 l/m 2 min 0 min 200 W/m 25,1 km/h (4 Bft) 93,62 %
08.01.2016 13:52 8,3 C 13,9 C 6,7 C 76 % 0 lf 1002,8 hPa 0,0 l/m 2 min 0 min 198 W/m 23,0 km/h (4 Bft) 91,49 %
08.01.2016 13:54 8,3 C 14,4 C 6,7 C 76 % 0 lf 1002,7 hPa 0,0 l/m 2 min 0 min 195 W/m 20,9 km/h (4 Bft) 95,83 %
08.01.2016 13:56 8,3 C 14,4 C 6,7 C 76 % 0 lf 1002,7 hPa 0,0 l/m 2 min 0 min 192 W/m 23,0 km/h (4 Bft) 95,74 %
08.01.2016 13:58 8,4 C 13,9 C 6,7 C 75 % 0 lf 1002,7 hPa 0,0 l/m 2 min 0 min 192 W/m 20,9 km/h (4 Bft) 95,65 %
08.01.2016 14:00 8,4 C 13,9 C 6,7 C 75 % 0 lf 1002,7 hPa 0,0 l/m 2 min 0 min 189 W/m 23,0 km/h (4 Bft) 97,87 %
08.01.2016 14:02 8,4 C 14,4 C 6,7 C 75 % 0 lf 1002,7 hPa 0,0 l/m 2 min 0 min 188 W/m 18,8 km/h (3 Bft) 97,87 %
08.01.2016 14:04 8,4 C 13,9 C 6,7 C 75 % 0 lf 1002,7 hPa 0,0 l/m 2 min 0 min 191 W/m 16,7 km/h (3 Bft) 95,74 %
08.01.2016 14:06 8,4 C 13,9 C 6,7 C 75 % 0 lf 1002,7 hPa 0,0 l/m 2 min 0 min 191 W/m 23,0 km/h (4 Bft) 97,87 %
08.01.2016 14:08 8,4 C 14,4 C 6,7 C 75 % 0 lf 1002,7 hPa 0,0 l/m 2 min 0 min 191 W/m 16,7 km/h (3 Bft) 93,62 %
08.01.2016 14:10 8,4 C 15,0 C 6,7 C 75 % 0 lf 1002,8 hPa 0,0 l/m 2 min 0 min 183 W/m 23,0 km/h (4 Bft) 95,65 %
08.01.2016 14:12 8,4 C 15,0 C 6,7 C 75 % 0 lf 1002,8 hPa 0,0 l/m 2 min 0 min 177 W/m 14,6 km/h (3 Bft) 97,87 %
08.01.2016 14:14 8,4 C 14,4 C 6,7 C 75 % 0 lf 1002,7 hPa 0,0 l/m 2 min 0 min 174 W/m 16,7 km/h (3 Bft) 95,74 %
08.01.2016 14:16 8,4 C 14,4 C 6,7 C 75 % 0 lf 1002,7 hPa 0,0 l/m 2 min 0 min 171 W/m 14,6 km/h (3 Bft) 97,87 %
08.01.2016 14:18 8,4 C 15,6 C 6,7 C 75 % 0 lf 1002,8 hPa 0,0 l/m 2 min 0 min 168 W/m 18,8 km/h (3 Bft) 93,62 %
08.01.2016 14:20 8,5 C 15,6 C 6,7 C 76 % 0 lf 1002,8 hPa 0,0 l/m 2 min 0 min 164 W/m 18,8 km/h (3 Bft) 95,74 %
08.01.2016 14:22 8,5 C 13,9 C 6,7 C 75 % 0 lf 1002,8 hPa 0,0 l/m 2 min 0 min 161 W/m 16,7 km/h (3 Bft) 97,83 %
08.01.2016 14:24 8,5 C 13,3 C 6,7 C 75 % 0 lf 1002,7 hPa 0,0 l/m 2 min 0 min 159 W/m 16,7 km/h (3 Bft) 97,87 %
08.01.2016 14:26 8,5 C 14,4 C 6,7 C 74 % 0 lf 1002,7 hPa 0,0 l/m 2 min 0 min 156 W/m 14,6 km/h (3 Bft) 95,74 %
08.01.2016 14:28 8,6 C 14,4 C 6,7 C 74 % 0 lf 1002,7 hPa 0,0 l/m 2 min 0 min 152 W/m 16,7 km/h (3 Bft) 95,74 %
08.01.2016 14:30 8,6 C 14,4 C 6,7 C 74 % 0 lf 1002,7 hPa 0,0 l/m 2 min 0 min 148 W/m 14,6 km/h (3 Bft) 95,74 %
08.01.2016 14:32 8,6 C 14,4 C 6,7 C 74 % 0 lf 1002,7 hPa 0,0 l/m 2 min 0 min 146 W/m 20,9 km/h (4 Bft) 95,74 %
08.01.2016 14:34 8,6 C 14,4 C 6,7 C 74 % 0 lf 1002,7 hPa 0,0 l/m 2 min 0 min 143 W/m 14,6 km/h (3 Bft) 100,00 %
08.01.2016 14:36 8,6 C 14,4 C 6,7 C 74 % 0 lf 1002,8 hPa 0,0 l/m 2 min 0 min 141 W/m 16,7 km/h (3 Bft) 93,62 %
08.01.2016 14:38 8,6 C 13,3 C 6,7 C 74 % 0 lf 1002,7 hPa 0,0 l/m 2 min 0 min 137 W/m 14,6 km/h (3 Bft) 97,87 %
08.01.2016 14:40 8,6 C 11,7 C 6,7 C 73 % 0 lf 1002,7 hPa 0,0 l/m 2 min 0 min 134 W/m 20,9 km/h (4 Bft) 97,87 %
08.01.2016 14:42 8,6 C 10,6 C 6,7 C 73 % 0 lf 1002,8 hPa 0,0 l/m 2 min 0 min 131 W/m 18,8 km/h (3 Bft) 95,74 %
08.01.2016 14:44 8,6 C 10,0 C 6,7 C 73 % 0 lf 1002,7 hPa 0,0 l/m 2 min 0 min 126 W/m 23,0 km/h (4 Bft) 100,00 %
08.01.2016 14:46 8,6 C 9,4 C 6,7 C 73 % 0 lf 1002,8 hPa 0,0 l/m 2 min 0 min 123 W/m 25,1 km/h (4 Bft) 100,00 %
08.01.2016 14:48 8,6 C 8,9 C 6,7 C 72 % 0 lf 1002,7 hPa 0,0 l/m 2 min 0 min 120 W/m 20,9 km/h (4 Bft) 97,87 %
08.01.2016 14:50 8,5 C 8,9 C 6,7 C 72 % 0 lf 1002,8 hPa 0,0 l/m 2 min 0 min 118 W/m 16,7 km/h (3 Bft) 100,00 %
08.01.2016 14:52 8,5 C 8,9 C 6,7 C 72 % 0 lf 1002,8 hPa 0,0 l/m 2 min 0 min 115 W/m 20,9 km/h (4 Bft) 100,00 %
08.01.2016 14:54 8,4 C 8,9 C 6,7 C 72 % 0 lf 1002,8 hPa 0,0 l/m 2 min 0 min 112 W/m 18,8 km/h (3 Bft) 100,00 %
08.01.2016 14:56 8,4 C 8,9 C 6,1 C 72 % 0 lf 1002,7 hPa 0,0 l/m 2 min 0 min 109 W/m 16,7 km/h (3 Bft) 100,00 %
08.01.2016 14:58 8,4 C 8,9 C 6,1 C 73 % 0 lf 1002,7 hPa 0,0 l/m 2 min 0 min 107 W/m 12,6 km/h (3 Bft) 95,65 %
08.01.2016 15:00 8,3 C 8,9 C 6,1 C 73 % 0 lf 1002,7 hPa 0,0 l/m 2 min 0 min 104 W/m 12,6 km/h (3 Bft) 97,87 %
08.01.2016 15:02 8,3 C 8,9 C 6,1 C 73 % 0 lf 1002,7 hPa 0,0 l/m 2 min 0 min 101 W/m 14,6 km/h (3 Bft) 100,00 %
08.01.2016 15:04 8,3 C 8,9 C 6,1 C 73 % 0 lf 1002,7 hPa 0,0 l/m 2 min 0 min 97 W/m 18,8 km/h (3 Bft) 100,00 %
08.01.2016 15:06 8,3 C 8,9 C 6,1 C 73 % 0 lf 1002,7 hPa 0,0 l/m 2 min 0 min 96 W/m 20,9 km/h (4 Bft) 95,74 %
08.01.2016 15:08 8,3 C 8,3 C 6,1 C 72 % 0 lf 1002,7 hPa 0,0 l/m 2 min 0 min 91 W/m 23,0 km/h (4 Bft) 93,48 %
08.01.2016 15:10 8,2 C 8,3 C 6,1 C 72 % 0 lf 1002,8 hPa 0,0 l/m 2 min 0 min 88 W/m 18,8 km/h (3 Bft) 97,87 %
08.01.2016 15:12 8,2 C 8,3 C 6,1 C 72 % 0 lf 1002,8 hPa 0,0 l/m 2 min 0 min 85 W/m 16,7 km/h (3 Bft) 97,87 %
08.01.2016 15:14 8,2 C 8,3 C 6,1 C 72 % 0 lf 1002,8 hPa 0,0 l/m 2 min 0 min 82 W/m 18,8 km/h (3 Bft) 97,87 %
08.01.2016 15:16 8,1 C 8,3 C 6,1 C 72 % 0 lf 1002,8 hPa 0,0 l/m 2 min 0 min 80 W/m 20,9 km/h (4 Bft) 97,87 %
08.01.2016 15:18 8,1 C 8,9 C 6,1 C 73 % 0 lf 1002,8 hPa 0,0 l/m 0 min 0 min 76 W/m 18,8 km/h (3 Bft) 97,87 %
08.01.2016 15:20 8,1 C 9,4 C 6,1 C 73 % 0 lf 1002,8 hPa 0,0 l/m 0 min 0 min 73 W/m 20,9 km/h (4 Bft) 97,83 %
08.01.2016 15:22 8,1 C 9,4 C 6,1 C 73 % 0 lf 1002,8 hPa 0,0 l/m 0 min 0 min 71 W/m 14,6 km/h (3 Bft) 95,74 %
08.01.2016 15:24 8,0 C 9,4 C 6,1 C 73 % 0 lf 1002,8 hPa 0,0 l/m 0 min 0 min 67 W/m 14,6 km/h (3 Bft) 97,87 %
08.01.2016 15:26 8,0 C 8,9 C 5,6 C 73 % 0 lf 1002,8 hPa 0,0 l/m 0 min 0 min 64 W/m 10,5 km/h (2 Bft) 95,74 %
08.01.2016 15:28 8,0 C 8,3 C 5,6 C 73 % 0 lf 1002,8 hPa 0,0 l/m 0 min 0 min 61 W/m 14,6 km/h (3 Bft) 95,74 %
08.01.2016 15:30 7,9 C 8,3 C 5,6 C 73 % 0 lf 1002,7 hPa 0,0 l/m 0 min 0 min 58 W/m 14,6 km/h (3 Bft) 97,87 %
08.01.2016 15:32 7,9 C 8,3 C 5,6 C 73 % 0 lf 1002,7 hPa 0,0 l/m 0 min 0 min 54 W/m 12,6 km/h (3 Bft) 95,65 %
08.01.2016 15:34 7,9 C 7,8 C 5,6 C 73 % 0 lf 1002,8 hPa 0,0 l/m 0 min 0 min 53 W/m 12,6 km/h (3 Bft) 95,74 %
08.01.2016 15:36 7,9 C 7,8 C 5,6 C 73 % 0 lf 1002,8 hPa 0,0 l/m 0 min 0 min 50 W/m 12,6 km/h (3 Bft) 95,74 %
08.01.2016 15:38 7,9 C 7,8 C 5,6 C 73 % 0 lf 1002,8 hPa 0,0 l/m 0 min 0 min 47 W/m 8,4 km/h (2 Bft) 95,74 %
08.01.2016 15:40 7,8 C 7,8 C 5,6 C 73 % 0 lf 1002,8 hPa 0,0 l/m 0 min 0 min 45 W/m 8,4 km/h (2 Bft) 93,62 %
08.01.2016 15:42 7,8 C 7,8 C 5,6 C 74 % 0 lf 1002,8 hPa 0,0 l/m 0 min 0 min 42 W/m 12,6 km/h (3 Bft) 97,87 %
08.01.2016 15:44 7,8 C 7,8 C 5,6 C 74 % 0 lf 1002,8 hPa 0,0 l/m 0 min 0 min 40 W/m 16,7 km/h (3 Bft) 97,83 %
08.01.2016 15:46 7,7 C 7,8 C 5,6 C 74 % 0 lf 1002,8 hPa 0,0 l/m 0 min 0 min 39 W/m 14,6 km/h (3 Bft) 95,74 %
08.01.2016 15:48 7,7 C 7,8 C 5,6 C 74 % 0 lf 1002,8 hPa 0,0 l/m 0 min 0 min 36 W/m 18,8 km/h (3 Bft) 95,74 %
08.01.2016 15:50 7,7 C 7,8 C 5,6 C 74 % 0 lf 1002,8 hPa 0,0 l/m 0 min 0 min 35 W/m 14,6 km/h (3 Bft) 91,49 %
08.01.2016 15:52 7,7 C 7,8 C 5,6 C 74 % 0 lf 1002,8 hPa 0,0 l/m 0 min 0 min 33 W/m 16,7 km/h (3 Bft) 95,74 %
08.01.2016 15:54 7,6 C 7,8 C 5,6 C 74 % 0 lf 1002,7 hPa 0,0 l/m 0 min 0 min 31 W/m 14,6 km/h (3 Bft) 95,74 %
08.01.2016 15:56 7,6 C 7,2 C 5,6 C 74 % 0 lf 1002,7 hPa 0,0 l/m 0 min 0 min 30 W/m 12,6 km/h (3 Bft) 97,83 %
08.01.2016 15:58 7,6 C 7,2 C 5,0 C 74 % 0 lf 1002,7 hPa 0,0 l/m 0 min 0 min 27 W/m 12,6 km/h (3 Bft) 91,49 %
08.01.2016 16:00 7,5 C 7,2 C 5,0 C 74 % 0 lf 1002,7 hPa 0,0 l/m 0 min 0 min 28 W/m 18,8 km/h (3 Bft) 97,87 %
08.01.2016 16:02 7,5 C 7,2 C 5,0 C 74 % 0 lf 1002,7 hPa 0,0 l/m 0 min 0 min 28 W/m 12,6 km/h (3 Bft) 97,87 %
08.01.2016 16:04 7,4 C 7,2 C 5,0 C 74 % 0 lf 1002,7 hPa 0,0 l/m 0 min 0 min 28 W/m 12,6 km/h (3 Bft) 95,74 %
08.01.2016 16:06 7,4 C 7,2 C 5,0 C 74 % 0 lf 1002,7 hPa 0,0 l/m 0 min 0 min 25 W/m 10,5 km/h (2 Bft) 91,49 %
08.01.2016 16:08 7,4 C 7,2 C 5,0 C 74 % 0 lf 1002,8 hPa 0,0 l/m 0 min 0 min 20 W/m 10,5 km/h (2 Bft) 93,48 %
08.01.2016 16:10 7,3 C 6,7 C 4,4 C 74 % 0 lf 1002,8 hPa 0,0 l/m 0 min 0 min 18 W/m 12,6 km/h (3 Bft) 93,62 %
08.01.2016 16:12 7,3 C 6,7 C 4,4 C 74 % 0 lf 1002,8 hPa 0,0 l/m 0 min 0 min 16 W/m 14,6 km/h (3 Bft) 93,88 %
08.01.2016 16:14 7,3 C 6,7 C 4,4 C 75 % 0 lf 1002,8 hPa 0,0 l/m 0 min 0 min 15 W/m 10,5 km/h (2 Bft) 93,62 %
08.01.2016 16:16 7,2 C 6,7 C 4,4 C 75 % 0 lf 1002,8 hPa 0,0 l/m 0 min 0 min 14 W/m 8,4 km/h (2 Bft) 95,65 %
08.01.2016 16:18 7,2 C 6,7 C 4,4 C 75 % 0 lf 1002,7 hPa 0,0 l/m 0 min 0 min 14 W/m 10,5 km/h (2 Bft) 93,62 %
08.01.2016 16:20 7,2 C 6,7 C 5,0 C 75 % 0 lf 1002,7 hPa 0,0 l/m 0 min 0 min 14 W/m 10,5 km/h (2 Bft) 89,36 %
08.01.2016 16:22 7,1 C 6,7 C 4,4 C 75 % 0 lf 1002,7 hPa 0,0 l/m 0 min 0 min 14 W/m 12,6 km/h (3 Bft) 95,74 %
08.01.2016 16:24 7,1 C 6,7 C 4,4 C 75 % 0 lf 1002,8 hPa 0,0 l/m 0 min 0 min 12 W/m 10,5 km/h (2 Bft) 95,74 %
08.01.2016 16:26 7,1 C 6,7 C 4,4 C 75 % 0 lf 1002,7 hPa 0,0 l/m 0 min 0 min 12 W/m 10,5 km/h (2 Bft) 95,74 %
08.01.2016 16:28 7,0 C 6,1 C 4,4 C 75 % 0 lf 1002,7 hPa 0,0 l/m 0 min 0 min 12 W/m 6,3 km/h (2 Bft) 93,48 %
08.01.2016 16:30 7,0 C 6,1 C 3,9 C 75 % 0 lf 1002,7 hPa 0,0 l/m 0 min 0 min 11 W/m 6,3 km/h (2 Bft) 95,74 %
08.01.2016 16:32 6,9 C 6,1 C 3,9 C 75 % 0 lf 1002,8 hPa 0,0 l/m 0 min 0 min 12 W/m 8,4 km/h (2 Bft) 95,74 %
08.01.2016 16:34 6,9 C 6,1 C 3,9 C 76 % 0 lf 1002,7 hPa 0,0 l/m 0 min 0 min 12 W/m 8,4 km/h (2 Bft) 97,87 %
08.01.2016 16:36 6,9 C 6,1 C 3,9 C 76 % 0 lf 1002,8 hPa 0,0 l/m 0 min 0 min 12 W/m 10,5 km/h (2 Bft) 97,87 %
08.01.2016 16:38 6,8 C 6,1 C 3,9 C 76 % 0 lf 1002,8 hPa 0,0 l/m 0 min 0 min 11 W/m 6,3 km/h (2 Bft) 97,87 %
08.01.2016 16:40 6,8 C 6,1 C 3,9 C 76 % 0 lf 1002,8 hPa 0,0 l/m 0 min 0 min 10 W/m 10,5 km/h (2 Bft) 97,83 %
08.01.2016 16:42 6,8 C 6,1 C 3,9 C 76 % 0 lf 1002,9 hPa 0,0 l/m 0 min 0 min 9 W/m 8,4 km/h (2 Bft) 95,74 %
08.01.2016 16:44 6,7 C 5,6 C 3,9 C 76 % 0 lf 1002,9 hPa 0,0 l/m 0 min 0 min 9 W/m 8,4 km/h (2 Bft) 97,87 %
08.01.2016 16:46 6,7 C 5,6 C 3,9 C 76 % 0 lf 1002,9 hPa 0,0 l/m 0 min 0 min 8 W/m 8,4 km/h (2 Bft) 95,74 %
08.01.2016 16:48 6,7 C 5,6 C 3,9 C 76 % 0 lf 1002,9 hPa 0,0 l/m 0 min 0 min 7 W/m 8,4 km/h (2 Bft) 100,00 %
08.01.2016 16:50 6,6 C 5,6 C 3,3 C 76 % 0 lf 1002,8 hPa 0,0 l/m 0 min 0 min 7 W/m 6,3 km/h (2 Bft) 97,83 %
08.01.2016 16:52 6,6 C 5,6 C 3,3 C 76 % 0 lf 1002,8 hPa 0,0 l/m 0 min 0 min 7 W/m 6,3 km/h (2 Bft) 100,00 %
08.01.2016 16:54 6,6 C 5,6 C 2,8 C 76 % 0 lf 1002,8 hPa 0,0 l/m 0 min 0 min 6 W/m 4,2 km/h (1 Bft) 100,00 %
08.01.2016 16:56 6,5 C 5,0 C 2,8 C 76 % 0 lf 1002,8 hPa 0,0 l/m 0 min 0 min 5 W/m 6,3 km/h (2 Bft) 100,00 %
08.01.2016 16:58 6,4 C 5,0 C 2,8 C 76 % 0 lf 1002,8 hPa 0,0 l/m 0 min 0 min 5 W/m 6,3 km/h (2 Bft) 100,00 %
08.01.2016 17:00 6,4 C 5,0 C 2,8 C 76 % 0 lf 1002,8 hPa 0,0 l/m 0 min 0 min 5 W/m 8,4 km/h (2 Bft) 100,00 %
08.01.2016 17:02 6,4 C 5,0 C 2,8 C 76 % 0 lf 1002,7 hPa 0,0 l/m 0 min 0 min 5 W/m 8,4 km/h (2 Bft) 97,83 %
08.01.2016 17:04 6,4 C 5,0 C 2,8 C 76 % 0 lf 1002,8 hPa 0,0 l/m 0 min 0 min 5 W/m 6,3 km/h (2 Bft) 95,74 %
08.01.2016 17:06 6,3 C 5,0 C 2,8 C 76 % 0 lf 1002,8 hPa 0,0 l/m 0 min 0 min 5 W/m 6,3 km/h (2 Bft) 93,62 %
08.01.2016 17:08 6,2 C 5,0 C 2,2 C 76 % 0 lf 1002,8 hPa 0,0 l/m 0 min 0 min 2 W/m 8,4 km/h (2 Bft) 97,87 %
08.01.2016 17:10 6,2 C 5,0 C 2,2 C 77 % 0 lf 1002,8 hPa 0,0 l/m 0 min 0 min 0 W/m 6,3 km/h (2 Bft) 97,87 %
08.01.2016 17:12 6,2 C 5,0 C 2,2 C 77 % 0 lf 1002,8 hPa 0,0 l/m 0 min 0 min 0 W/m 8,4 km/h (2 Bft) 95,74 %
08.01.2016 17:14 6,1 C 5,0 C 2,8 C 77 % 0 lf 1002,9 hPa 0,0 l/m 0 min 0 min 0 W/m 8,4 km/h (2 Bft) 97,83 %
08.01.2016 17:16 6,0 C 5,0 C 2,8 C 77 % 0 lf 1002,8 hPa 0,0 l/m 0 min 0 min 0 W/m 8,4 km/h (2 Bft) 96,00 %
08.01.2016 17:18 6,0 C 5,0 C 2,8 C 77 % 0 lf 1002,9 hPa 0,0 l/m 0 min 0 min 0 W/m 6,3 km/h (2 Bft) 93,62 %
08.01.2016 17:20 5,9 C 5,0 C 2,2 C 77 % 0 lf 1002,8 hPa 0,0 l/m 0 min 0 min 0 W/m 6,3 km/h (2 Bft) 97,87 %
08.01.2016 17:22 5,9 C 5,0 C 2,2 C 77 % 0 lf 1002,9 hPa 0,0 l/m 0 min 0 min 0 W/m 8,4 km/h (2 Bft) 97,87 %
08.01.2016 17:24 5,8 C 5,0 C 2,2 C 78 % 0 lf 1002,9 hPa 0,0 l/m 0 min 0 min 0 W/m 8,4 km/h (2 Bft) 97,83 %
08.01.2016 17:26 5,8 C 5,0 C 2,2 C 78 % 0 lf 1002,9 hPa 0,0 l/m 0 min 0 min 0 W/m 6,3 km/h (2 Bft) 97,87 %
08.01.2016 17:28 5,8 C 4,4 C 1,7 C 78 % 0 lf 1003,0 hPa 0,0 l/m 0 min 0 min 0 W/m 8,4 km/h (2 Bft) 95,74 %
08.01.2016 17:30 5,7 C 4,4 C 1,7 C 78 % 0 lf 1003,0 hPa 0,0 l/m 0 min 0 min 0 W/m 8,4 km/h (2 Bft) 97,87 %
08.01.2016 17:32 5,7 C 4,4 C 1,7 C 78 % 0 lf 1003,0 hPa 0,0 l/m 0 min 0 min 0 W/m 10,5 km/h (2 Bft) 93,62 %
08.01.2016 17:34 5,6 C 4,4 C 1,7 C 79 % 0 lf 1002,9 hPa 0,0 l/m 0 min 0 min 0 W/m 6,3 km/h (2 Bft) 93,62 %
08.01.2016 17:36 5,6 C 4,4 C 1,7 C 79 % 0 lf 1002,9 hPa 0,0 l/m 0 min 0 min 0 W/m 6,3 km/h (2 Bft) 93,48 %
08.01.2016 17:38 5,6 C 4,4 C 1,7 C 79 % 0 lf 1003,0 hPa 0,0 l/m 0 min 0 min 0 W/m 4,2 km/h (1 Bft) 97,87 %
08.01.2016 17:40 5,5 C 4,4 C 1,7 C 79 % 0 lf 1003,0 hPa 0,0 l/m 0 min 0 min 0 W/m 6,3 km/h (2 Bft) 97,87 %
08.01.2016 17:42 5,4 C 4,4 C 1,1 C 79 % 0 lf 1003,0 hPa 0,0 l/m 0 min 0 min 0 W/m 6,3 km/h (2 Bft) 97,87 %
08.01.2016 17:44 5,4 C 3,9 C 1,1 C 80 % 0 lf 1003,0 hPa 0,0 l/m 0 min 0 min 0 W/m 6,3 km/h (2 Bft) 95,74 %
08.01.2016 17:46 5,4 C 3,9 C 1,1 C 80 % 0 lf 1002,9 hPa 0,0 l/m 0 min 0 min 0 W/m 4,2 km/h (1 Bft) 97,87 %
08.01.2016 17:48 5,3 C 3,9 C 1,1 C 80 % 0 lf 1002,9 hPa 0,0 l/m 0 min 0 min 0 W/m 6,3 km/h (2 Bft) 95,65 %
08.01.2016 17:50 5,3 C 3,9 C 1,1 C 80 % 0 lf 1002,8 hPa 0,0 l/m 0 min 0 min 0 W/m 4,2 km/h (1 Bft) 93,62 %
08.01.2016 17:52 5,2 C 3,9 C 1,1 C 80 % 0 lf 1002,7 hPa 0,0 l/m 0 min 0 min 0 W/m 6,3 km/h (2 Bft) 93,62 %
08.01.2016 17:54 5,2 C 3,3 C 1,1 C 80 % 0 lf 1002,8 hPa 0,0 l/m 0 min 0 min 0 W/m 4,2 km/h (1 Bft) 95,74 %
08.01.2016 17:56 5,1 C 3,3 C 1,1 C 80 % 0 lf 1002,8 hPa 0,0 l/m 0 min 0 min 0 W/m 4,2 km/h (1 Bft) 95,74 %
08.01.2016 17:58 5,1 C 3,3 C 0,6 C 80 % 0 lf 1002,7 hPa 0,0 l/m 0 min 0 min 0 W/m 6,3 km/h (2 Bft) 95,74 %
08.01.2016 18:00 5,0 C 3,3 C 0,6 C 81 % 0 lf 1002,7 hPa 0,0 l/m 0 min 0 min 0 W/m 6,3 km/h (2 Bft) 95,65 %
08.01.2016 18:02 4,9 C 3,3 C 0,6 C 81 % 0 lf 1002,7 hPa 0,0 l/m 0 min 0 min 0 W/m 4,2 km/h (1 Bft) 93,62 %
08.01.2016 18:04 4,8 C 3,3 C 0,6 C 81 % 0 lf 1002,7 hPa 0,0 l/m 0 min 0 min 0 W/m 4,2 km/h (1 Bft) 94,44 %
08.01.2016 18:06 4,8 C 3,3 C 0,6 C 81 % 0 lf 1002,7 hPa 0,0 l/m 0 min 0 min 0 W/m 4,2 km/h (1 Bft) 91,49 %
08.01.2016 18:08 4,7 C 3,3 C 0,6 C 81 % 0 lf 1002,8 hPa 0,0 l/m 0 min 0 min 0 W/m 6,3 km/h (2 Bft) 91,49 %
08.01.2016 18:10 4,7 C 3,3 C 0,6 C 81 % 0 lf 1002,8 hPa 0,0 l/m 0 min 0 min 0 W/m 6,3 km/h (2 Bft) 95,74 %
08.01.2016 18:12 4,6 C 3,3 C 0,6 C 81 % 0 lf 1002,8 hPa 0,0 l/m 0 min 0 min 0 W/m 6,3 km/h (2 Bft) 95,74 %
08.01.2016 18:14 4,5 C 3,3 C 0,6 C 81 % 0 lf 1002,8 hPa 0,0 l/m 0 min 0 min 0 W/m 6,3 km/h (2 Bft) 89,36 %
08.01.2016 18:16 4,4 C 3,3 C 0,6 C 82 % 0 lf 1002,8 hPa 0,0 l/m 0 min 0 min 0 W/m 6,3 km/h (2 Bft) 95,65 %
08.01.2016 18:18 4,4 C 3,9 C 1,1 C 82 % 0 lf 1002,9 hPa 0,0 l/m 0 min 0 min 0 W/m 6,3 km/h (2 Bft) 91,49 %
08.01.2016 18:20 4,3 C 3,9 C 1,1 C 82 % 0 lf 1002,9 hPa 0,0 l/m 0 min 0 min 0 W/m 8,4 km/h (2 Bft) 93,62 %
08.01.2016 18:22 4,3 C 3,9 C 1,1 C 83 % 0 lf 1002,9 hPa 0,0 l/m 0 min 0 min 0 W/m 8,4 km/h (2 Bft) 93,62 %
08.01.2016 18:24 4,2 C 3,9 C 1,1 C 83 % 0 lf 1002,9 hPa 0,0 l/m 0 min 0 min 0 W/m 10,5 km/h (2 Bft) 93,62 %
08.01.2016 18:26 4,2 C 3,9 C 1,1 C 83 % 0 lf 1002,9 hPa 0,0 l/m 0 min 0 min 0 W/m 8,4 km/h (2 Bft) 93,48 %
08.01.2016 18:28 4,1 C 3,9 C 1,1 C 83 % 0 lf 1002,9 hPa 0,0 l/m 0 min 0 min 0 W/m 6,3 km/h (2 Bft) 95,74 %
08.01.2016 18:30 4,1 C 3,3 C 1,1 C 84 % 0 lf 1002,9 hPa 0,0 l/m 0 min 0 min 0 W/m 6,3 km/h (2 Bft) 95,74 %
08.01.2016 18:32 4,1 C 3,3 C 1,1 C 84 % 0 lf 1002,9 hPa 0,0 l/m 0 min 0 min 0 W/m 6,3 km/h (2 Bft) 95,74 %
08.01.2016 18:34 4,0 C 3,3 C 1,1 C 84 % 0 lf 1002,9 hPa 0,0 l/m 0 min 0 min 0 W/m 10,5 km/h (2 Bft) 97,87 %
08.01.2016 18:36 4,0 C 3,3 C 1,1 C 84 % 0 lf 1002,9 hPa 0,0 l/m 0 min 0 min 0 W/m 8,4 km/h (2 Bft) 93,62 %
08.01.2016 18:38 3,9 C 3,3 C 1,1 C 84 % 0 lf 1003,0 hPa 0,0 l/m 0 min 0 min 0 W/m 4,2 km/h (1 Bft) 97,83 %
08.01.2016 18:40 3,9 C 3,3 C 1,1 C 85 % 0 lf 1002,8 hPa 0,0 l/m 0 min 0 min 0 W/m 6,3 km/h (2 Bft) 87,23 %
08.01.2016 18:42 3,9 C 3,3 C 0,6 C 85 % 0 lf 1002,8 hPa 0,0 l/m 0 min 0 min 0 W/m 8,4 km/h (2 Bft) 95,74 %
08.01.2016 18:44 3,8 C 3,3 C 0,6 C 85 % 0 lf 1002,8 hPa 0,0 l/m 0 min 0 min 0 W/m 8,4 km/h (2 Bft) 93,62 %
08.01.2016 18:46 3,8 C 3,3 C 0,6 C 85 % 0 lf 1002,9 hPa 0,0 l/m 0 min 0 min 0 W/m 8,4 km/h (2 Bft) 93,62 %
08.01.2016 18:48 3,8 C 3,3 C 0,6 C 85 % 0 lf 1002,8 hPa 0,0 l/m 0 min 0 min 0 W/m 6,3 km/h (2 Bft) 93,62 %
08.01.2016 18:50 3,8 C 3,3 C 0,6 C 85 % 0 lf 1002,9 hPa 0,0 l/m 0 min 0 min 0 W/m 8,4 km/h (2 Bft) 93,48 %
08.01.2016 18:52 3,7 C 3,3 C 0,6 C 85 % 0 lf 1002,9 hPa 0,0 l/m 0 min 0 min 0 W/m 6,3 km/h (2 Bft) 95,74 %
08.01.2016 18:54 3,7 C 3,3 C 0,6 C 85 % 0 lf 1002,9 hPa 0,0 l/m 0 min 0 min 0 W/m 6,3 km/h (2 Bft) 93,62 %
08.01.2016 18:56 3,7 C 3,3 C 0,6 C 85 % 0 lf 1002,9 hPa 0,0 l/m 0 min 0 min 0 W/m 6,3 km/h (2 Bft) 87,23 %
08.01.2016 18:58 3,7 C 3,3 C 0,6 C 85 % 0 lf 1003,0 hPa 0,0 l/m 0 min 0 min 0 W/m 8,4 km/h (2 Bft) 91,49 %
08.01.2016 19:00 3,6 C 3,3 C 0,6 C 85 % 0 lf 1003,0 hPa 0,0 l/m 0 min 0 min 0 W/m 6,3 km/h (2 Bft) 95,74 %
08.01.2016 19:02 3,6 C 3,3 C 0,6 C 85 % 0 lf 1003,1 hPa 0,0 l/m 0 min 0 min 0 W/m 8,4 km/h (2 Bft) 95,65 %
08.01.2016 19:04 3,6 C 3,3 C 0,6 C 85 % 0 lf 1003,1 hPa 0,0 l/m 0 min 0 min 0 W/m 8,4 km/h (2 Bft) 95,74 %
08.01.2016 19:06 3,5 C 3,3 C 0,6 C 85 % 0 lf 1003,1 hPa 0,0 l/m 0 min 0 min 0 W/m 6,3 km/h (2 Bft) 95,74 %
08.01.2016 19:08 3,5 C 3,3 C 1,1 C 86 % 0 lf 1003,1 hPa 0,0 l/m 0 min 0 min 0 W/m 8,4 km/h (2 Bft) 97,87 %
08.01.2016 19:10 3,4 C 3,3 C 1,1 C 86 % 0 lf 1003,1 hPa 0,0 l/m 0 min 0 min 0 W/m 8,4 km/h (2 Bft) 97,87 %
08.01.2016 19:12 3,4 C 3,3 C 1,1 C 86 % 0 lf 1003,1 hPa 0,0 l/m 0 min 0 min 0 W/m 6,3 km/h (2 Bft) 95,74 %
08.01.2016 19:14 3,4 C 3,3 C 1,1 C 86 % 0 lf 1003,1 hPa 0,0 l/m 0 min 0 min 0 W/m 6,3 km/h (2 Bft) 95,65 %
08.01.2016 19:16 3,4 C 3,3 C 1,7 C 86 % 0 lf 1003,1 hPa 0,0 l/m 0 min 0 min 0 W/m 8,4 km/h (2 Bft) 95,74 %
08.01.2016 19:18 3,4 C 3,3 C 1,7 C 86 % 0 lf 1003,1 hPa 0,0 l/m 0 min 0 min 0 W/m 8,4 km/h (2 Bft) 95,74 %
08.01.2016 19:20 3,4 C 3,3 C 1,7 C 86 % 0 lf 1003,1 hPa 0,0 l/m 0 min 0 min 0 W/m 10,5 km/h (2 Bft) 97,87 %
08.01.2016 19:22 3,4 C 3,3 C 1,7 C 86 % 0 lf 1003,1 hPa 0,0 l/m 0 min 0 min 0 W/m 8,4 km/h (2 Bft) 97,87 %
08.01.2016 19:24 3,3 C 3,3 C 1,7 C 86 % 0 lf 1003,2 hPa 0,0 l/m 0 min 0 min 0 W/m 8,4 km/h (2 Bft) 95,74 %
08.01.2016 19:26 3,3 C 3,3 C 1,7 C 86 % 0 lf 1003,3 hPa 0,0 l/m 0 min 0 min 0 W/m 8,4 km/h (2 Bft) 100,00 %
08.01.2016 19:28 3,3 C 3,3 C 1,7 C 87 % 0 lf 1003,2 hPa 0,0 l/m 0 min 0 min 0 W/m 8,4 km/h (2 Bft) 97,87 %
08.01.2016 19:30 3,3 C 3,3 C 1,7 C 87 % 0 lf 1003,2 hPa 0,0 l/m 0 min 0 min 0 W/m 10,5 km/h (2 Bft) 100,00 %
08.01.2016 19:32 3,3 C 3,3 C 1,7 C 87 % 0 lf 1003,2 hPa 0,0 l/m 0 min 0 min 0 W/m 12,6 km/h (3 Bft) 93,62 %
08.01.2016 19:34 3,3 C 3,3 C 1,7 C 87 % 0 lf 1003,2 hPa 0,0 l/m 0 min 0 min 0 W/m 8,4 km/h (2 Bft) 97,87 %
08.01.2016 19:36 3,3 C 3,3 C 1,7 C 87 % 0 lf 1003,3 hPa 0,0 l/m 0 min 0 min 0 W/m 12,6 km/h (3 Bft) 97,87 %
08.01.2016 19:38 3,3 C 3,3 C 1,7 C 87 % 0 lf 1003,4 hPa 0,0 l/m 0 min 0 min 0 W/m 12,6 km/h (3 Bft) 100,00 %
08.01.2016 19:40 3,3 C 3,3 C 1,7 C 87 % 0 lf 1003,3 hPa 0,0 l/m 0 min 0 min 0 W/m 10,5 km/h (2 Bft) 100,00 %
08.01.2016 19:42 3,3 C 3,3 C 1,7 C 87 % 0 lf 1003,3 hPa 0,0 l/m 0 min 0 min 0 W/m 14,6 km/h (3 Bft) 100,00 %
08.01.2016 19:44 3,3 C 3,3 C 1,7 C 87 % 0 lf 1003,4 hPa 0,0 l/m 0 min 0 min 0 W/m 12,6 km/h (3 Bft) 100,00 %
08.01.2016 19:46 3,3 C 3,3 C 1,7 C 87 % 0 lf 1003,3 hPa 0,0 l/m 0 min 0 min 0 W/m 12,6 km/h (3 Bft) 100,00 %
08.01.2016 19:48 3,3 C 3,3 C 1,7 C 87 % 0 lf 1003,4 hPa 0,0 l/m 0 min 0 min 0 W/m 10,5 km/h (2 Bft) 93,48 %
08.01.2016 19:50 3,3 C 3,3 C 1,7 C 87 % 0 lf 1003,5 hPa 0,0 l/m 0 min 0 min 0 W/m 10,5 km/h (2 Bft) 100,00 %
08.01.2016 19:52 3,3 C 3,3 C 1,7 C 87 % 0 lf 1003,5 hPa 0,0 l/m 0 min 0 min 0 W/m 12,6 km/h (3 Bft) 97,87 %
08.01.2016 19:54 3,3 C 3,3 C 1,7 C 87 % 0 lf 1003,5 hPa 0,0 l/m 0 min 0 min 0 W/m 10,5 km/h (2 Bft) 95,74 %
08.01.2016 19:56 3,2 C 3,3 C 1,7 C 87 % 0 lf 1003,5 hPa 0,0 l/m 0 min 0 min 0 W/m 10,5 km/h (2 Bft) 97,87 %
08.01.2016 19:58 3,2 C 3,3 C 1,7 C 87 % 0 lf 1003,5 hPa 0,0 l/m 0 min 0 min 0 W/m 8,4 km/h (2 Bft) 95,74 %
08.01.2016 20:00 3,2 C 3,3 C 1,7 C 87 % 0 lf 1003,5 hPa 0,0 l/m 0 min 0 min 0 W/m 6,3 km/h (2 Bft) 97,83 %
08.01.2016 20:02 3,2 C 3,3 C 1,7 C 87 % 0 lf 1003,4 hPa 0,0 l/m 0 min 0 min 0 W/m 8,4 km/h (2 Bft) 97,87 %
08.01.2016 20:04 3,2 C 3,3 C 1,7 C 87 % 0 lf 1003,4 hPa 0,0 l/m 0 min 0 min 0 W/m 8,4 km/h (2 Bft) 93,62 %
08.01.2016 20:06 3,2 C 2,8 C 1,1 C 87 % 0 lf 1003,3 hPa 0,0 l/m 0 min 0 min 0 W/m 10,5 km/h (2 Bft) 100,00 %
08.01.2016 20:08 3,2 C 2,8 C 1,1 C 87 % 0 lf 1003,2 hPa 0,0 l/m 0 min 0 min 0 W/m 8,4 km/h (2 Bft) 97,87 %
08.01.2016 20:10 3,2 C 2,8 C 1,1 C 87 % 0 lf 1003,2 hPa 0,0 l/m 0 min 0 min 0 W/m 8,4 km/h (2 Bft) 97,87 %
08.01.2016 20:12 3,1 C 2,8 C 1,1 C 87 % 0 lf 1003,3 hPa 0,0 l/m 0 min 0 min 0 W/m 8,4 km/h (2 Bft) 97,83 %
08.01.2016 20:14 3,1 C 2,8 C 1,1 C 87 % 0 lf 1003,2 hPa 0,0 l/m 0 min 0 min 0 W/m 6,3 km/h (2 Bft) 95,74 %
08.01.2016 20:16 3,1 C 2,8 C 1,1 C 87 % 0 lf 1003,2 hPa 0,0 l/m 0 min 0 min 0 W/m 8,4 km/h (2 Bft) 97,87 %
08.01.2016 20:18 3,1 C 2,8 C 1,1 C 87 % 0 lf 1003,2 hPa 0,0 l/m 0 min 0 min 0 W/m 12,6 km/h (3 Bft) 97,87 %
08.01.2016 20:20 3,1 C 2,8 C 1,1 C 87 % 0 lf 1003,2 hPa 0,0 l/m 0 min 0 min 0 W/m 6,3 km/h (2 Bft) 97,87 %
08.01.2016 20:22 3,1 C 2,8 C 1,1 C 87 % 0 lf 1003,1 hPa 0,0 l/m 0 min 0 min 0 W/m 10,5 km/h (2 Bft) 97,83 %
08.01.2016 20:24 3,0 C 2,8 C 1,1 C 87 % 0 lf 1003,2 hPa 0,0 l/m 0 min 0 min 0 W/m 10,5 km/h (2 Bft) 100,00 %
08.01.2016 20:26 3,0 C 2,8 C 1,1 C 87 % 0 lf 1003,1 hPa 0,0 l/m 0 min 0 min 0 W/m 10,5 km/h (2 Bft) 100,00 %
08.01.2016 20:28 3,0 C 2,8 C 1,1 C 87 % 0 lf 1003,2 hPa 0,0 l/m 0 min 0 min 0 W/m 8,4 km/h (2 Bft) 100,00 %
08.01.2016 20:30 2,9 C 2,8 C 1,1 C 87 % 0 lf 1003,2 hPa 0,0 l/m 0 min 0 min 0 W/m 6,3 km/h (2 Bft) 100,00 %
08.01.2016 20:32 2,9 C 2,8 C 1,1 C 87 % 0 lf 1003,1 hPa 0,0 l/m 0 min 0 min 0 W/m 6,3 km/h (2 Bft) 97,87 %
08.01.2016 20:34 2,9 C 2,8 C 1,1 C 87 % 0 lf 1003,2 hPa 0,0 l/m 0 min 0 min 0 W/m 8,4 km/h (2 Bft) 97,87 %
08.01.2016 20:36 2,9 C 2,2 C 1,1 C 87 % 0 lf 1003,2 hPa 0,0 l/m 0 min 0 min 0 W/m 6,3 km/h (2 Bft) 100,00 %
08.01.2016 20:38 2,9 C 2,2 C 1,1 C 87 % 0 lf 1003,1 hPa 0,0 l/m 0 min 0 min 0 W/m 6,3 km/h (2 Bft) 100,00 %
08.01.2016 20:40 2,8 C 2,2 C 0,6 C 87 % 0 lf 1003,2 hPa 0,0 l/m 0 min 0 min 0 W/m 6,3 km/h (2 Bft) 95,74 %
08.01.2016 20:42 2,8 C 2,2 C 0,6 C 88 % 0 lf 1003,1 hPa 0,0 l/m 0 min 0 min 0 W/m 8,4 km/h (2 Bft) 95,74 %
08.01.2016 20:44 2,7 C 2,2 C 0,6 C 88 % 0 lf 1003,1 hPa 0,0 l/m 0 min 0 min 0 W/m 10,5 km/h (2 Bft) 95,74 %
08.01.2016 20:46 2,7 C 2,2 C 0,6 C 88 % 0 lf 1003,1 hPa 0,0 l/m 0 min 0 min 0 W/m 10,5 km/h (2 Bft) 97,83 %
08.01.2016 20:48 2,7 C 2,2 C 0,6 C 88 % 0 lf 1003,1 hPa 0,0 l/m 0 min 0 min 0 W/m 8,4 km/h (2 Bft) 100,00 %
08.01.2016 20:50 2,7 C 1,7 C 0,6 C 88 % 0 lf 1003,0 hPa 0,0 l/m 0 min 0 min 0 W/m 8,4 km/h (2 Bft) 100,00 %
08.01.2016 20:52 2,6 C 1,7 C 0,6 C 88 % 0 lf 1003,1 hPa 0,0 l/m 0 min 0 min 0 W/m 8,4 km/h (2 Bft) 100,00 %
08.01.2016 20:54 2,6 C 1,7 C 0,6 C 87 % 0 lf 1003,0 hPa 0,0 l/m 0 min 0 min 0 W/m 8,4 km/h (2 Bft) 95,74 %
08.01.2016 20:56 2,6 C 1,7 C 0,6 C 88 % 0 lf 1003,0 hPa 0,0 l/m 0 min 0 min 0 W/m 8,4 km/h (2 Bft) 97,87 %
08.01.2016 20:58 2,5 C 1,7 C 0,6 C 88 % 0 lf 1002,9 hPa 0,0 l/m 0 min 0 min 0 W/m 12,6 km/h (3 Bft) 100,00 %
08.01.2016 21:00 2,5 C 1,7 C 0,0 C 88 % 0 lf 1002,9 hPa 0,0 l/m 0 min 0 min 0 W/m 8,4 km/h (2 Bft) 97,87 %
08.01.2016 21:02 2,4 C 1,7 C 0,0 C 88 % 0 lf 1002,8 hPa 0,0 l/m 0 min 0 min 0 W/m 8,4 km/h (2 Bft) 95,74 %
08.01.2016 21:04 2,4 C 2,2 C 0,6 C 88 % 0 lf 1002,8 hPa 0,0 l/m 0 min 0 min 0 W/m 8,4 km/h (2 Bft) 97,87 %
08.01.2016 21:06 2,4 C 2,2 C 0,0 C 88 % 0 lf 1002,9 hPa 0,0 l/m 0 min 0 min 0 W/m 8,4 km/h (2 Bft) 93,62 %
08.01.2016 21:08 2,3 C 2,2 C 0,0 C 88 % 0 lf 1002,9 hPa 0,0 l/m 0 min 0 min 0 W/m 6,3 km/h (2 Bft) 97,87 %
08.01.2016 21:10 2,3 C 2,2 C 0,0 C 88 % 0 lf 1002,9 hPa 0,0 l/m 0 min 0 min 0 W/m 8,4 km/h (2 Bft) 97,83 %
08.01.2016 21:12 2,3 C 2,2 C 0,0 C 88 % 0 lf 1002,9 hPa 0,0 l/m 0 min 0 min 0 W/m 6,3 km/h (2 Bft) 97,87 %
08.01.2016 21:14 2,3 C 1,7 C 0,0 C 88 % 0 lf 1002,9 hPa 0,0 l/m 0 min 0 min 0 W/m 8,4 km/h (2 Bft) 97,87 %
08.01.2016 21:16 2,2 C 1,7 C 0,0 C 88 % 0 lf 1002,8 hPa 0,0 l/m 0 min 0 min 0 W/m 8,4 km/h (2 Bft) 95,74 %
08.01.2016 21:18 2,2 C 1,7 C 0,0 C 88 % 0 lf 1002,9 hPa 0,0 l/m 0 min 0 min 0 W/m 8,4 km/h (2 Bft) 95,74 %
08.01.2016 21:20 2,2 C 1,7 C 0,0 C 88 % 0 lf 1002,9 hPa 0,0 l/m 0 min 0 min 0 W/m 8,4 km/h (2 Bft) 93,62 %
08.01.2016 21:22 2,2 C 1,7 C 0,0 C 89 % 0 lf 1002,8 hPa 0,0 l/m 0 min 0 min 0 W/m 10,5 km/h (2 Bft) 93,48 %
08.01.2016 21:24 2,1 C 1,7 C 0,0 C 89 % 0 lf 1002,9 hPa 0,0 l/m 0 min 0 min 0 W/m 10,5 km/h (2 Bft) 95,74 %
08.01.2016 21:26 2,1 C 2,2 C 0,6 C 89 % 0 lf 1002,8 hPa 0,0 l/m 0 min 0 min 0 W/m 8,4 km/h (2 Bft) 91,49 %
08.01.2016 21:28 2,1 C 2,2 C 0,6 C 89 % 0 lf 1002,8 hPa 0,0 l/m 0 min 0 min 0 W/m 10,5 km/h (2 Bft) 89,36 %
08.01.2016 21:30 2,1 C 2,2 C 0,6 C 89 % 0 lf 1002,8 hPa 0,0 l/m 0 min 0 min 0 W/m 10,5 km/h (2 Bft) 89,36 %
08.01.2016 21:32 2,1 C 2,2 C 0,6 C 89 % 0 lf 1002,8 hPa 0,0 l/m 0 min 0 min 0 W/m 10,5 km/h (2 Bft) 93,48 %
08.01.2016 21:34 2,0 C 2,2 C 0,6 C 89 % 0 lf 1002,9 hPa 0,0 l/m 0 min 0 min 0 W/m 12,6 km/h (3 Bft) 93,62 %
08.01.2016 21:36 2,0 C 2,2 C 0,6 C 89 % 0 lf 1002,9 hPa 0,0 l/m 0 min 0 min 0 W/m 12,6 km/h (3 Bft) 91,49 %
08.01.2016 21:38 2,0 C 2,2 C 0,6 C 89 % 0 lf 1002,9 hPa 0,0 l/m 0 min 0 min 0 W/m 12,6 km/h (3 Bft) 93,62 %
08.01.2016 21:40 2,0 C 2,2 C 0,6 C 90 % 0 lf 1002,8 hPa 0,0 l/m 0 min 0 min 0 W/m 12,6 km/h (3 Bft) 93,62 %
08.01.2016 21:42 2,0 C 2,2 C 0,6 C 90 % 0 lf 1002,8 hPa 0,0 l/m 0 min 0 min 0 W/m 12,6 km/h (3 Bft) 93,62 %
08.01.2016 21:44 2,0 C 1,7 C 0,6 C 90 % 0 lf 1002,8 hPa 0,0 l/m 0 min 0 min 0 W/m 10,5 km/h (2 Bft) 91,30 %
08.01.2016 21:46 1,9 C 1,7 C 0,6 C 90 % 0 lf 1002,8 hPa 0,0 l/m 0 min 0 min 0 W/m 10,5 km/h (2 Bft) 89,36 %
08.01.2016 21:48 1,9 C 1,7 C 0,6 C 90 % 0 lf 1002,8 hPa 0,0 l/m 0 min 0 min 0 W/m 10,5 km/h (2 Bft) 89,36 %
08.01.2016 21:50 1,9 C 1,7 C 0,6 C 90 % 0 lf 1002,8 hPa 0,0 l/m 0 min 0 min 0 W/m 12,6 km/h (3 Bft) 91,49 %
08.01.2016 21:52 1,9 C 1,7 C 0,6 C 90 % 0 lf 1002,8 hPa 0,0 l/m 0 min 0 min 0 W/m 10,5 km/h (2 Bft) 93,62 %
08.01.2016 21:54 1,9 C 1,7 C 0,6 C 90 % 0 lf 1002,7 hPa 0,0 l/m 0 min 0 min 0 W/m 10,5 km/h (2 Bft) 93,62 %
08.01.2016 21:56 1,8 C 1,7 C 0,0 C 90 % 0 lf 1002,8 hPa 0,0 l/m 0 min 0 min 0 W/m 8,4 km/h (2 Bft) 91,30 %
08.01.2016 21:58 1,8 C 1,7 C 0,0 C 90 % 0 lf 1002,7 hPa 0,0 l/m 0 min 0 min 0 W/m 12,6 km/h (3 Bft) 93,62 %
08.01.2016 22:00 1,8 C 1,7 C 0,6 C 90 % 0 lf 1002,8 hPa 0,0 l/m 0 min 0 min 0 W/m 10,5 km/h (2 Bft) 91,49 %
08.01.2016 22:02 1,8 C 1,7 C 0,0 C 90 % 0 lf 1002,8 hPa 0,0 l/m 0 min 0 min 0 W/m 14,6 km/h (3 Bft) 89,36 %
08.01.2016 22:04 1,8 C 1,7 C 0,0 C 91 % 0 lf 1002,8 hPa 0,0 l/m 0 min 0 min 0 W/m 10,5 km/h (2 Bft) 91,49 %
08.01.2016 22:06 1,8 C 1,7 C 0,6 C 91 % 0 lf 1002,7 hPa 0,0 l/m 0 min 0 min 0 W/m 10,5 km/h (2 Bft) 91,49 %
08.01.2016 22:08 1,8 C 1,7 C 0,6 C 91 % 0 lf 1002,7 hPa 0,0 l/m 0 min 0 min 0 W/m 10,5 km/h (2 Bft) 91,30 %
08.01.2016 22:10 1,7 C 1,7 C 0,6 C 91 % 0 lf 1002,8 hPa 0,0 l/m 0 min 0 min 0 W/m 10,5 km/h (2 Bft) 93,62 %
08.01.2016 22:12 1,7 C 1,7 C 0,6 C 91 % 0 lf 1002,8 hPa 0,0 l/m 0 min 0 min 0 W/m 10,5 km/h (2 Bft) 91,49 %
08.01.2016 22:14 1,7 C 1,7 C 0,6 C 91 % 0 lf 1002,7 hPa 0,0 l/m 0 min 0 min 0 W/m 10,5 km/h (2 Bft) 97,87 %
08.01.2016 22:16 1,7 C 1,7 C 0,6 C 91 % 0 lf 1002,7 hPa 0,0 l/m 0 min 0 min 0 W/m 10,5 km/h (2 Bft) 97,87 %
08.01.2016 22:18 1,7 C 1,7 C 0,6 C 91 % 0 lf 1002,7 hPa 0,0 l/m 0 min 0 min 0 W/m 12,6 km/h (3 Bft) 95,74 %
08.01.2016 22:20 1,7 C 1,7 C 0,0 C 91 % 0 lf 1002,7 hPa 0,0 l/m 0 min 0 min 0 W/m 10,5 km/h (2 Bft) 95,65 %
08.01.2016 22:22 1,7 C 1,7 C 0,0 C 91 % 0 lf 1002,8 hPa 0,0 l/m 0 min 0 min 0 W/m 6,3 km/h (2 Bft) 95,74 %
08.01.2016 22:24 1,7 C 1,1 C 0,0 C 91 % 0 lf 1002,8 hPa 0,0 l/m 0 min 0 min 0 W/m 10,5 km/h (2 Bft) 97,87 %
08.01.2016 22:26 1,7 C 1,1 C 0,0 C 91 % 0 lf 1002,8 hPa 0,0 l/m 0 min 0 min 0 W/m 6,3 km/h (2 Bft) 95,74 %
08.01.2016 22:28 1,7 C 1,1 C 0,0 C 91 % 0 lf 1002,7 hPa 0,0 l/m 0 min 0 min 0 W/m 8,4 km/h (2 Bft) 97,87 %
08.01.2016 22:30 1,6 C 1,1 C 0,0 C 91 % 0 lf 1002,7 hPa 0,0 l/m 0 min 0 min 0 W/m 10,5 km/h (2 Bft) 97,87 %
08.01.2016 22:32 1,6 C 1,1 C 0,0 C 91 % 0 lf 1002,7 hPa 0,0 l/m 0 min 0 min 0 W/m 8,4 km/h (2 Bft) 97,83 %
08.01.2016 22:34 1,6 C 1,1 C 0,0 C 91 % 0 lf 1002,7 hPa 0,0 l/m 0 min 0 min 0 W/m 8,4 km/h (2 Bft) 95,74 %
08.01.2016 22:36 1,6 C 1,1 C 0,0 C 91 % 0 lf 1002,8 hPa 0,0 l/m 0 min 0 min 0 W/m 10,5 km/h (2 Bft) 95,74 %
08.01.2016 22:38 1,5 C 1,1 C 0,0 C 91 % 0 lf 1002,8 hPa 0,0 l/m 0 min 0 min 0 W/m 8,4 km/h (2 Bft) 91,49 %
08.01.2016 22:40 1,5 C 1,1 C 0,0 C 91 % 0 lf 1002,8 hPa 0,0 l/m 0 min 0 min 0 W/m 14,6 km/h (3 Bft) 100,00 %
08.01.2016 22:42 1,5 C 1,1 C 0,0 C 91 % 0 lf 1002,7 hPa 0,0 l/m 0 min 0 min 0 W/m 14,6 km/h (3 Bft) 93,62 %
08.01.2016 22:44 1,4 C 1,1 C 0,0 C 91 % 0 lf 1002,8 hPa 0,0 l/m 0 min 0 min 0 W/m 8,4 km/h (2 Bft) 100,00 %
08.01.2016 22:46 1,4 C 1,1 C 0,0 C 91 % 0 lf 1003,0 hPa 0,0 l/m 0 min 0 min 0 W/m 10,5 km/h (2 Bft) 97,87 %
08.01.2016 22:48 1,4 C 1,1 C 0,0 C 91 % 0 lf 1002,8 hPa 0,0 l/m 0 min 0 min 0 W/m 14,6 km/h (3 Bft) 97,87 %
08.01.2016 22:50 1,4 C 1,7 C 0,0 C 91 % 0 lf 1002,7 hPa 0,0 l/m 0 min 0 min 0 W/m 18,8 km/h (3 Bft) 95,74 %
08.01.2016 22:52 1,4 C 1,7 C 0,0 C 91 % 0 lf 1002,8 hPa 0,0 l/m 0 min 0 min 0 W/m 12,6 km/h (3 Bft) 97,87 %
08.01.2016 22:54 1,4 C 1,7 C 0,0 C 92 % 0 lf 1002,7 hPa 0,0 l/m 0 min 0 min 0 W/m 12,6 km/h (3 Bft) 97,83 %
08.01.2016 22:56 1,4 C 1,7 C 0,0 C 92 % 0 lf 1002,7 hPa 0,0 l/m 0 min 0 min 0 W/m 8,4 km/h (2 Bft) 100,00 %
08.01.2016 22:58 1,4 C 1,1 C 0,0 C 92 % 0 lf 1002,7 hPa 0,0 l/m 0 min 0 min 0 W/m 10,5 km/h (2 Bft) 100,00 %
08.01.2016 23:00 1,4 C 1,1 C 0,0 C 92 % 0 lf 1002,7 hPa 0,0 l/m 0 min 0 min 0 W/m 6,3 km/h (2 Bft) 100,00 %
08.01.2016 23:02 1,4 C 1,7 C 0,0 C 92 % 0 lf 1002,7 hPa 0,0 l/m 0 min 0 min 0 W/m 10,5 km/h (2 Bft) 93,62 %
08.01.2016 23:04 1,4 C 1,1 C 0,0 C 92 % 0 lf 1002,6 hPa 0,0 l/m 0 min 0 min 0 W/m 10,5 km/h (2 Bft) 100,00 %
08.01.2016 23:06 1,4 C 1,1 C 0,0 C 92 % 0 lf 1002,6 hPa 0,0 l/m 0 min 0 min 0 W/m 14,6 km/h (3 Bft) 93,48 %
08.01.2016 23:08 1,4 C 1,1 C 0,0 C 92 % 0 lf 1002,6 hPa 0,0 l/m 0 min 0 min 0 W/m 16,7 km/h (3 Bft) 100,00 %
08.01.2016 23:10 1,4 C 1,1 C 0,0 C 92 % 0 lf 1002,6 hPa 0,0 l/m 0 min 0 min 0 W/m 10,5 km/h (2 Bft) 97,87 %
08.01.2016 23:12 1,4 C 1,1 C 0,0 C 92 % 0 lf 1002,6 hPa 0,0 l/m 0 min 0 min 0 W/m 10,5 km/h (2 Bft) 100,00 %
08.01.2016 23:14 1,3 C 1,1 C 0,0 C 92 % 0 lf 1002,6 hPa 0,0 l/m 0 min 0 min 0 W/m 10,5 km/h (2 Bft) 97,87 %
08.01.2016 23:16 1,3 C 1,1 C 0,0 C 92 % 0 lf 1002,6 hPa 0,0 l/m 0 min 0 min 0 W/m 8,4 km/h (2 Bft) 97,87 %
08.01.2016 23:18 1,3 C 1,1 C 0,0 C 92 % 0 lf 1002,6 hPa 0,0 l/m 0 min 0 min 0 W/m 12,6 km/h (3 Bft) 100,00 %
08.01.2016 23:20 1,3 C 1,1 C 0,0 C 92 % 0 lf 1002,6 hPa 0,0 l/m 0 min 0 min 0 W/m 12,6 km/h (3 Bft) 95,74 %
08.01.2016 23:22 1,3 C 1,1 C 0,0 C 92 % 0 lf 1002,6 hPa 0,0 l/m 0 min 0 min 0 W/m 14,6 km/h (3 Bft) 97,87 %
08.01.2016 23:24 1,3 C 1,1 C 0,0 C 92 % 0 lf 1002,6 hPa 0,0 l/m 0 min 0 min 0 W/m 10,5 km/h (2 Bft) 100,00 %
08.01.2016 23:26 1,3 C 1,1 C 0,0 C 92 % 0 lf 1002,5 hPa 0,0 l/m 0 min 0 min 0 W/m 10,5 km/h (2 Bft) 100,00 %
08.01.2016 23:28 1,3 C 1,1 C 0,0 C 92 % 0 lf 1002,5 hPa 0,0 l/m 0 min 0 min 0 W/m 14,6 km/h (3 Bft) 97,87 %
08.01.2016 23:30 1,3 C 1,1 C 0,0 C 92 % 0 lf 1002,5 hPa 0,0 l/m 0 min 0 min 0 W/m 12,6 km/h (3 Bft) 95,65 %
08.01.2016 23:32 1,2 C 1,1 C 0,0 C 92 % 0 lf 1002,4 hPa 0,0 l/m 0 min 0 min 0 W/m 12,6 km/h (3 Bft) 95,74 %
08.01.2016 23:34 1,2 C 1,7 C 0,0 C 92 % 0 lf 1002,5 hPa 0,0 l/m 0 min 0 min 0 W/m 8,4 km/h (2 Bft) 95,74 %
08.01.2016 23:36 1,2 C 1,1 C 0,0 C 92 % 0 lf 1002,4 hPa 0,0 l/m 0 min 0 min 0 W/m 14,6 km/h (3 Bft) 95,74 %
08.01.2016 23:38 1,3 C 1,7 C 0,0 C 92 % 0 lf 1002,5 hPa 0,0 l/m 0 min 0 min 0 W/m 10,5 km/h (2 Bft) 93,62 %
08.01.2016 23:40 1,2 C 1,7 C 0,0 C 92 % 0 lf 1002,4 hPa 0,0 l/m 0 min 0 min 0 W/m 16,7 km/h (3 Bft) 95,74 %
08.01.2016 23:42 1,2 C 1,7 C 0,0 C 93 % 0 lf 1002,4 hPa 0,0 l/m 0 min 0 min 0 W/m 10,5 km/h (2 Bft) 93,48 %
08.01.2016 23:44 1,3 C 1,7 C 0,0 C 93 % 0 lf 1002,4 hPa 0,0 l/m 0 min 0 min 0 W/m 10,5 km/h (2 Bft) 93,62 %
08.01.2016 23:46 1,3 C 1,7 C 0,0 C 93 % 0 lf 1002,4 hPa 0,0 l/m 0 min 0 min 0 W/m 16,7 km/h (3 Bft) 93,62 %
08.01.2016 23:48 1,2 C 1,7 C 0,0 C 93 % 0 lf 1002,3 hPa 0,0 l/m 0 min 0 min 0 W/m 14,6 km/h (3 Bft) 97,87 %
08.01.2016 23:50 1,3 C 1,7 C 0,0 C 93 % 0 lf 1002,4 hPa 0,0 l/m 0 min 0 min 0 W/m 10,5 km/h (2 Bft) 93,62 %
08.01.2016 23:52 1,2 C 1,7 C 0,0 C 93 % 0 lf 1002,4 hPa 0,0 l/m 0 min 0 min 0 W/m 14,6 km/h (3 Bft) 95,74 %
08.01.2016 23:54 1,3 C 1,7 C 0,6 C 93 % 0 lf 1002,4 hPa 0,0 l/m 0 min 0 min 0 W/m 10,5 km/h (2 Bft) 95,65 %
08.01.2016 23:56 1,3 C 1,7 C 0,6 C 93 % 0 lf 1002,5 hPa 0,0 l/m 0 min 0 min 0 W/m 10,5 km/h (2 Bft) 97,87 %
08.01.2016 23:58 1,3 C 1,7 C 0,6 C 93 % 0 lf 1002,4 hPa 0,0 l/m 0 min 0 min 0 W/m 8,4 km/h (2 Bft) 93,62 %
_ Min-Zeit 23:30 22:24 21:00 14:48 00:00 00:00 - - - - 16:54 04:48
Minimum _ 1,2 C 1,1 C 0,0 C 72 % 0 lf 996,3 hPa - - - - 4,2 km/h (1 Bft) 86,96 %
_ Max-Zeit 14:42 14:18 13:26 23:42 00:00 10:44 00:00 09:24 00:00 12:30 02:08 01:36
Maximum _ 8,7 C 15,6 C 6,7 C 93 % 0 lf 1004,0 hPa 0,0 l/m 2 min 0 min 247 W/m 48,1 km/h
W (6 Bft)
100,00 %
Durchschnitt _ 4,7 C 5,5 C 2,9 C 84 % 0 lf 1001,9 hPa #0,0 l/m #5:52 h #0 min. 125 W/m 20,5 km/h (4 Bft) 95,98 %
© 2016 W. Hausmann